     2.10           OBSERVATION DATA    M (MIXED)           RINEX VERSION / TYPE
teqc 2000Jul20 Neil Weston 20010425 15:28:52UTC             PGM / RUN BY / DATE
HP-UX 10.20|PA-RISC|cc A.10.32.03|=+|=|                     COMMENT
BIT 2 OF LLI FLAGS DATA COLLECTED UNDER A/S CONDITION       COMMENT
LDBG                                                        MARKER NAME
___ -Unknown-                                               OBSERVER / AGENCY
___ ASHTECH Z18 0064                                        REC # / TYPE / VERS
___ -Unknown-                                               ANT # / TYPE
  3798331.6976   955361.1687  5017240.4087                  APPROX POSITION XYZ
        0.0000        0.0000        0.0000                  ANTENNA: DELTA H/E/N
     1     1                                                WAVELENGTH FACT L1/2
     7    L1    L2    C1    P2    P1    D1    D2            # / TYPES OF OBSERV
SNR is mapped to RINEX snr flag value [1-9]                 COMMENT
L1: 1 -> 1; 90 -> 5; 210 -> 9 ZOMMENT L2: 1 -> 1; 150 -> 5; 250 -> 9COMMENT
  2000     2    17     0     0    0.0000000     GPS         TIME OF FIRST OBS
    13                                                      LEAP SECONDS
                                                            END OF HEADER
 00  2 17  0  0  0.0000000  0 12G 7G18G25G16G 4G 1G11G14R11R 8R 1R10
         0.113 3         0.542 2  23897643.824    23897649.977    23897643.824
     -2700.444       -2104.214
         0.454 3         0.084 2  21477060.584    21477063.475    21477060.584
      2659.221        2072.175
         0.257 3         0.805 2  23899852.734    23899852.505    23899852.734
     -2311.243       -1800.959
         0.947 3         0.597 2  20163377.840    20163380.759    20163377.840
       378.019         294.565
         0.952 3         0.445 2  21587971.117    21587972.834    21587971.117
      1947.399        1517.448
         0.755 3         0.145 2  20332622.620    20332625.482    20332622.620
       148.086         115.426
         0.131 3         0.352 1  24861547.017    24861546.731    24861547.017
     -3865.845       -3012.335
         0.703 3         0.294 2  21105793.738    21105796.772    21105793.738
     -1973.579       -1537.866
         0.140 3         0.761 2  19671399.691    19671402.097    19671399.691
      1461.601        1136.801
         0.597 3         0.170 2  22084705.222    22084707.457    22084705.222
     -3435.827       -2672.312
         0.351 3         0.199 2  19222737.924    19222743.481    19222737.924
      -337.687        -262.652
         0.547 3                  20987617.408                    20987617.408
     -2720.272
 00  2 17  0  0 30.0000000  0 12G 7G18G25G16G 4G 1G11G14R11R 8R 1R10
     81161.671 3     63243.286 2  23913090.253    23913094.002    23913090.253
     -2709.379       -2111.211
    -79572.983 3    -62005.169 2  21461917.838    21461920.958    21461917.838
      2646.569        2062.257
     69554.109 3     54198.616 2  23913086.130    23913089.593    23913086.130
     -2324.843       -1811.541
    -11119.096 3     -8664.380 2  20161261.442    20161264.418    20161261.442
       364.184         283.798
    -58168.343 3    -45326.263 2  21576901.277    21576903.738    21576901.277
      1931.501        1505.075
     -4177.985 3     -3256.004 2  20331827.603    20331830.522    20331827.603
       131.455         102.441
    116018.111 3     90403.977 1  24883627.600    24883630.290    24883627.600
     -3867.630       -3013.727
     59381.600 3     46271.107 2  21117093.536    21117096.370    21117093.536
     -1984.206       -1546.121
    -43438.062 3    -33784.490 2  19663282.652    19663284.542    19663282.652
      1435.279        1116.350
    103223.227 3     80284.410 2  22103967.767    22103970.918    22103967.767
     -3444.737       -2679.232
     10420.590 3      8104.837 2  19224686.896    19224692.625    19224686.896
      -356.089        -276.983
   -838081.832 3                  21002900.699                    21002900.699
     -2740.019
 00  2 17  0  1  0.0000000  0 12G 7G18G25G16G 4G 1G11G14R11R 8R 1R10
    162567.000 3    126675.969 2  23928579.861    23928583.553    23928579.861
     -2717.467       -2117.542
   -158787.808 3   -123730.985 2  21446844.089    21446846.665    21446844.089
      2634.584        2052.916
    139509.224 3    108709.069 2  23926399.548    23926401.065    23926399.548
     -2338.779       -1822.363
    -21842.051 3    -17019.929 2  20159221.107    20159224.169    20159221.107
       350.882         273.441
   -115880.816 3    -90297.019 2  21565919.420    21565921.823    21565919.420
      1916.213        1493.132
     -7871.615 3     -6134.148 2  20331124.795    20331127.599    20331124.795
       114.941          89.547
    232068.502 3                  24905711.079                    24905711.079
     -3868.748
    119061.545 3     92774.953 2  21128450.031    21128453.293    21128450.031
     -1994.185       -1553.918
    -86103.733 3    -66968.880 2  19655309.150    19655311.098    19655309.150
      1409.280        1096.092
   -227912.609 3   -177265.733 2  22123276.989    22123279.853    22123276.989
     -3453.363       -2685.957
     21378.617 3     16627.747 2  19226735.877    19226741.778    19226735.877
      -374.274        -291.101
                                  21018295.747

 00  2 17  0  1 30.0000000  0 12G 7G18G25G16G 4G 1G11G14R11R 8R 1R10
    244207.191 3    190291.621 2  23944116.087    23944120.151    23944116.087
     -2723.626       -2122.294
   -237639.780 3   -185174.063 2  21431839.148    21431842.182    21431839.148
      2623.607        2044.353
    209879.027 3    163542.714 2  23939789.132    23939791.364    23939789.132
     -2351.058       -1832.015
    -32174.999 3    -25071.576 2  20157254.738    20157257.714    20157254.738
       339.305         264.386
   -173139.273 3   -134913.984 2  21555023.663    21555026.267    21555023.663
      1902.360        1482.348
    -11075.253 3     -8630.488 2  20330515.049    20330517.768    20330515.049
       100.163          78.060
    348159.078 3    271292.958 1  24927802.463    24927804.180    24927802.463
     -3869.176       -3014.929
    179025.366 3    139500.000 2  21139860.925    21139863.959    21139860.925
     -2002.025       -1560.021
   -127992.166 3    -99548.765 2  19647480.921    19647483.900    19647480.921
      1384.777        1077.062
   -124184.567 3    -96588.395 2  22142634.442    22142637.593    22142634.442
     -3460.406       -2691.426
     32879.527 3     25572.885 2  19228886.331    19228892.519    19228886.331
      -391.003        -304.114
   -672432.207 3                  21033801.842                    21033801.842
     -2779.242
 00  2 17  0  2  0.0000000  0 12G 7G18G25G16G 4G 1G11G14R11R 8R 1R10
    326090.395 3    254096.670 2  23959697.136    23959703.003    23959697.136
     -2732.131       -2128.917
   -316097.750 3   -246310.133 2  21416908.851    21416911.427    21416908.851
      2610.281        2034.002
    280683.417 3    218714.960 2  23953264.543    23953265.172    23953264.543
     -2366.098       -1843.688
    -42090.994 3    -32798.313 2  20155367.749    20155371.012    20155367.749
       324.909         253.158
   -229913.119 3   -179153.345 2  21544219.248    21544221.910    21544219.248
      1885.659        1469.365
    -13772.822 3    -10732.482 2  20330001.678    20330004.654    20330001.678
        82.870          64.577
    464329.080 3    361814.985 1  24949907.564    24949910.054    24949907.564
     -3872.510       -3017.513
    239298.658 3    186466.183 2  21151330.682    21151333.429    21151330.682
     -2013.190       -1568.732
   -169079.565 3   -131505.610 2  19639802.892    19639805.069    19639802.892
      1357.555        1055.888
    -20182.242 3    -15697.724 2  22162042.133    22162045.571    22162042.133
     -3469.930       -2698.835
     44944.615 3     34956.834 2  19231142.603    19231148.390    19231142.603
      -410.221        -319.067
   -588690.648 3                  21049424.503                    21049424.503
     -2800.230
 00  2 17  0  2 30.0000000  0 12G 7G18G25G16G 4G 1G11G14R11R 8R 1R10
    408210.640 3    318086.408 2  23975323.542    23975330.067    23975323.542
     -2741.091       -2135.920
   -394185.907 3   -307158.027 2  21402049.147    21402051.837    21402049.147
      2597.074        2023.700
    351925.500 3    274228.273 2  23966820.544    23966823.063    23966820.544
     -2381.730       -1855.909
    -51587.011 3    -40197.814 2  20153560.807    20153563.926    20153560.807
       309.660         241.290
   -286202.791 3   -223015.406 2  21533507.778    21533510.841    21533507.778
      1868.476        1455.938
    -15968.665 3    -12443.525 2  20329583.963    20329586.538    20329583.963
        65.146          50.770
    580574.228 3    452395.617 1  24972026.749    24972028.953    24972026.749
     -3875.817       -3020.090
    299895.384 3    233684.401 2  21162861.633    21162864.409    21162861.633
     -2025.177       -1578.059
   -209362.916 3   -162837.090 2  19632275.292    19632277.298    19632275.292
      1329.563        1034.108
     84095.389 3     65407.066 2  22181501.718    22181504.010    22181501.718
     -3480.312       -2706.915
     57576.343 3     44781.492 2  19233504.794    19233511.154    19233504.794
      -430.405        -334.791
   -903085.771 3                  21065160.069                    21065160.069
     -2821.903
 00  2 17  0  3  0.0000000  0 12G 7G18G25G16G 4G 1G11G14R11R 8R 1R10
    490516.629 3    382220.868 2  23990987.192    23990991.427    23990987.192
     -2747.278       -2140.734
   -471966.689 3   -367766.408 2  21387247.928    21387250.532    21387247.928
      2586.950        2015.797
    423541.723 3    330033.114 2  23980448.612    23980451.445    23980448.612
     -2393.808       -1865.270
    -60710.038 3    -47306.684 2  20151824.748    20151827.782    20151824.748
       297.201         231.591
   -342058.997 3   -266539.723 2  21522879.236    21522881.582    21522879.236
      1853.974        1444.650
    -17719.083 3    -13807.480 2  20329250.708    20329253.399    20329250.708
        50.203          39.151
    696830.640 3    542985.019 1  24994153.992    24994154.049    24994153.992
     -3875.877       -3020.172
    360762.414 3    281113.245 2  21174444.605    21174447.553    21174444.605
     -2033.948       -1584.877
   -248892.694 3   -193582.451 2  19624888.049    19624890.398    19624888.049
      1304.519        1014.627
    188594.220 3    146683.909 2  22201003.219    22201005.625    22201003.219
     -3487.451       -2712.460
     70724.112 3     55007.527 2  19235963.774    19235969.446    19235963.774
      -447.468        -348.006
   -818171.426 3                  21081000.567                    21081000.567
     -2840.288
 00  2 17  0  3 30.0000000  0 12G 7G18G25G16G 4G 1G11G14R11R 8R 1R10
    573064.912 3    446544.135 2  24006693.563    24006699.687    24006693.563
     -2754.966       -2146.804
   -549378.338 3   -428087.135 2  21372516.746    21372519.293    21372516.746
      2574.928        2006.440
    495561.699 3    386152.576 2  23994154.794    23994155.853    23994154.794
     -2406.433       -1875.141
    -69398.090 3    -54076.594 2  20150171.440    20150174.388    20150171.440
       282.989         220.499
   -397423.873 3   -309681.182 2  21512343.514    21512346.204    21512343.514
      1837.932        1432.149
    -18968.639 3    -14781.152 2  20329012.752    20329015.528    20329012.752
        34.290          26.719
    813136.161 3    633612.695 1  25016282.047    25016286.083    25016282.047
     -3876.691       -3020.827
    421954.273 3    328795.203 2  21186088.655    21186091.489    21186088.655
     -2044.601       -1593.193
   -287614.561 3   -223699.448 2  19617651.858    19617654.780    19617651.858
      1278.009         994.016
    293365.480 3    228172.606 2  22220554.073    22220557.625    22220554.073
     -3496.197       -2719.266
     84441.900 3     65676.911 2  19238528.866    19238535.111    19238528.866
      -465.963        -362.419
   -732649.125 3                  21096953.988                    21096953.988
     -2860.103
 00  2 17  0  4  0.0000000  0 12G 7G18G25G16G 4G 1G11G14R11R 8R 1R10
    655871.334 3    511068.577 2  24022452.577    24022456.641    24022452.577
     -2763.267       -2153.163
   -626411.846 3   -488113.224 2  21357857.972    21357861.063    21357857.972
      2563.033        1997.185
    567985.814 3    442586.949 2  24007935.097    24007935.927    24007935.097
     -2419.503       -1885.378
    -77633.107 3    -60493.476 2  20148604.266    20148607.328    20148604.266
       268.454         209.160
   -452277.235 3   -352424.051 2  21501905.212    21501907.473    21501905.212
      1821.305        1419.208
    -19721.212 3    -15367.578 2  20328869.516    20328872.406    20328869.516
        18.196          14.179
    929480.677 3    724270.691 1  25038422.116    25038425.722    25038422.116
     -3877.083       -3021.070
    483503.833 3    376755.888 2  21197801.441    21197804.732    21197801.441
     -2056.345       -1602.347
   -325514.334 3   -253177.026 2  19610569.316    19610571.550    19610569.316
      1251.064         973.055
    398421.039 3    309882.475 2  22240158.705    22240161.283    22240158.705
     -3505.113       -2726.189
     98741.899 3     76799.138 2  19241203.087    19241209.160    19241203.087
      -484.908        -377.171
   -646509.370 3                  21113024.197                    21113024.197
     -2880.177
 00  2 17  0  4 30.0000000  0 12G 7G18G25G16G 4G 1G11G14R11R 8R 1R10
    738907.323 3    575771.873 2  24038254.144    24038258.522    24038254.144
     -2772.478       -2160.336
   -703114.331 3   -547881.366 2  21343261.659    21343264.865    21343261.659
      2550.225        1987.228
    640773.850 3    499304.901 2  24021786.013    24021789.161    24021786.013
     -2432.887       -1895.726
    -85459.418 3    -66591.896 2  20147114.912    20147118.146    20147114.912
       253.367         197.429
   -506653.022 3   -394794.790 2  21491558.118    21491560.551    21491558.118
      1803.773        1405.544
    -20019.904 3    -15600.313 2  20328812.761    20328815.652    20328812.761
         1.621           1.258
   1045799.355 3    814908.599 1  25060557.743    25060562.122    25060557.743
     -3877.626       -3021.552
    545373.717 3    424966.179 2  21209574.932    21209577.966    21209574.932
     -2068.316       -1611.683
   -362634.343 3   -282048.128 2  19603633.037    19603634.985    19603633.037
      1223.608         951.682
    503716.271 3    391778.690 2  22259808.487    22259811.524    22259808.487
     -3514.456       -2733.459
    113581.812 3     88341.275 2  19243978.258    19243984.159    19243978.258
      -504.377        -392.272
   -559799.133 3                  21129199.267                    21129199.267
     -2900.589
 00  2 17  0  5  0.0000000  0 12G 7G18G25G16G 4G 1G11G14R11R 8R 1R10
    822198.738 3    640674.198 2  24054104.628    24054107.090    24054104.628
     -2780.908       -2166.908
   -779443.392 3   -607358.531 2  21328737.029    21328739.805    21328737.029
      2537.616        1977.383
    713937.693 3    556315.682 2  24035708.187    24035711.335    24035708.187
     -2445.417       -1905.485
    -92850.254 3    -72350.993 2  20145708.620    20145711.883    20145708.620
       238.705         185.997
   -560523.612 3   -436771.865 2  21481307.160    21481309.536    21481307.160
      1787.007        1392.473
    -19837.192 3    -15457.955 2  20328847.744    20328850.349    20328847.744
       -14.444         -11.246
   1162116.343 3    905545.196 1  25082689.871    25082697.483    25082689.871
     -3877.610       -3021.526
    607590.364 3    473446.662 2  21221414.005    21221417.125    21221414.005
     -2080.079       -1620.861
   -398951.182 3   -310294.545 2  19596845.961    19596848.253    19596845.961
      1196.837         930.871
    609272.329 3    473877.837 2  22279506.216    22279508.966    22279506.216
     -3523.249       -2740.282
    128983.465 3    100320.333 2  19246858.417    19246864.433    19246858.417
      -523.114        -406.877
   -472499.812 3                  21145484.323                    21145484.323
     -2920.154
 00  2 17  0  5 30.0000000  0 11G 7G18G25G16G 4G 1G14R11R 8R 1R10
    905713.068 3    705750.240 2  24069996.497    24070002.821    24069996.497
     -2786.322       -2171.115
   -855417.439 3   -666559.063 2  21314279.591    21314282.253    21314279.591
      2527.700        1969.645
    787455.416 3    613602.240 2  24049700.160    24049701.248    24049700.160
     -2455.568       -1913.479
    -99829.215 3    -77789.136 2  20144380.633    20144383.838    20144380.633
       226.869         176.782
   -613920.582 3   -478379.886 2  21471145.918    21471148.121    21471145.918
      1773.047        1381.571
    -19204.458 3    -14964.909 2  20328968.121    20328970.783    20328968.121
       -27.371         -21.334
    670135.289 3    522182.968 2  21233315.811    21233319.445    21233315.811
     -2089.192       -1627.946
   -434488.030 3   -337934.289 2  19590204.808    19590206.985    19590204.808
      1172.661         912.068
    715063.001 3    556159.413 2  22299246.651    22299251.235    22299246.651
     -3529.125       -2744.877
    144924.886 3    112719.214 2  19249839.742    19249845.586    19249839.742
      -539.307        -419.474
   -384640.318 3                  21161874.171                    21161874.171
     -2937.091
 00  2 17  0  6  0.0000000  0 11G 7G18G25G16G 4G 1G14R11R 8R 1R10
    989490.366 3    771031.213 2  24085937.424    24085946.124    24085937.424
     -2795.947       -2178.662
   -930994.109 3   -725449.955 2  21299897.840    21299901.131    21299897.840
      2513.558        1958.607
    861385.962 3    671210.455 2  24063767.105    24063767.277    24063767.105
     -2470.196       -1924.811
   -106348.309 3    -82868.942 2  20143140.078    20143143.112    20143140.078
       210.628         164.143
   -666790.719 3   -519577.399 2  21461084.807    21461086.581    21461084.807
      1754.532        1367.168
    -18077.943 3    -14087.109 2  20329182.456    20329185.203    20329182.456
       -45.059         -35.093
    733053.709 3    571210.295 2  21245288.900    21245292.076    21245288.900
     -2102.421       -1638.256
  18405316.305 3  14315238.086 2  19583718.549    19583721.013    19583718.549
      1144.208         889.952
    821133.607 3    638658.758 2  22319041.911    22319045.520    22319041.911
     -3539.425       -2752.891
    161451.640 3    125573.351 2  19252930.338    19252936.067    19252930.338
      -559.602        -435.264
   -296176.978 3                  21178376.948                    21178376.948
     -2957.725
 00  2 17  0  6 30.0000000  0 11G 7G18G25G16G 4G 1G14R11R 8R 1R10
   1073474.148 3    836473.070 2  24101918.956    24101927.313    24101918.956
     -2803.089       -2184.281
  -1006225.515 3   -784071.826 2  21285581.552    21285584.557    21285581.552
      2501.405        1949.146
    935658.299 3    729085.039 2  24077901.061    24077904.495    24077901.061
     -2481.683       -1933.767
   -112464.822 3    -87635.042 2  20141976.114    20141979.147    20141976.114
       196.746         153.307
   -719194.117 3   -560411.208 2  21451113.059    21451114.891    21451113.059
      1738.602        1354.746
    -16500.599 3    -12858.013 2  20329482.705    20329485.281    20329482.705
       -60.580         -47.205
    796269.974 3    620469.717 2  21257318.306    21257321.740    21257318.306
     -2112.498       -1646.109
  18371371.151 3  14288836.318 2  19577374.810    19577376.701    19577374.810
      1118.232         869.735
    927418.176 3    721324.506 2  22338877.021    22338879.083    22338877.021
     -3546.874       -2758.689
    178499.960 3    138833.153 2  19256118.533    19256124.205    19256118.533
      -577.503        -449.188
   -207180.645 3                  21194979.588                    21194979.588
     -2975.760
 00  2 17  0  7  0.0000000  0 11G 7G18G25G16G 4G 1G14R11R 8R 1R10
   1157660.231 3    902072.545 2  24117938.826    24117944.206    24117938.826
     -2809.671       -2189.364
  -1081097.864 3   -842413.892 2  21271333.763    21271336.797    21271333.763
      2489.708        1940.028
   1010272.175 3    787225.706 2  24092098.969    24092101.001    24092098.969
     -2493.099       -1942.651
   -118176.223 3    -92085.469 2  20140889.345    20140892.379    20140889.345
       183.606         143.073
   -771129.220 3   -600880.123 2  21441230.215    21441232.362    21441230.215
      1723.165        1342.736
    -14465.669 3    -11272.346 2  20329869.855    20329872.574    20329869.855
       -75.381         -58.747
    859778.450 3    669956.822 2  21269403.730    21269407.021    21269403.730
     -2121.711       -1653.261
  18338200.977 3  14263037.315 2  19571176.601    19571178.778    19571176.601
      1092.529         849.719
   1033925.001 3    804163.125 2  22358750.718    22358755.245    22358750.718
     -3553.985       -2764.209
    196080.473 3    152506.879 2  19259405.814    19259411.486    19259405.814
      -595.024        -462.796
  -1093708.824 3                  21211681.565                    21211681.565
     -2993.665
 00  2 17  0  7 30.0000000  0 11G 7G18G25G16G 4G 1G14R11R 8R 1R10
   1242060.075 3    967838.625 2  24134000.765    24134006.346    24134000.765
     -2816.928       -2195.066
  -1155592.639 3   -900461.735 2  21257157.921    21257160.468    21257157.921
      2476.749        1929.911
   1085259.235 3    845657.181 2  24106369.064    24106371.124    24106369.064
     -2505.902       -1952.678
   -123478.191 3    -96216.855 2  20139880.171    20139883.176    20139880.171
       170.045         132.509
   -822566.718 3   -640961.282 2  21431441.533    21431443.908    21431441.533
      1706.067        1329.396
    -11971.192 3     -9328.599 2  20330344.684    20330347.431    20330344.684
       -90.847         -70.765
    923576.760 3    719669.782 2  21281544.252    21281547.285    21281544.252
     -2131.440       -1660.849
  18305825.029 3  14237856.045 2  19565126.315    19565128.492    19565126.315
      1065.901         829.032
   1140670.468 3    887187.350 2  22378672.411    22378676.020    22378672.411
     -3562.147       -2770.538
    214211.174 3    166608.524 2  19262796.358    19262802.488    19262796.358
      -613.540        -477.181
  -1003616.679 3                  21228488.787                    21228488.787
     -3012.299
 00  2 17  0  8  0.0000000  0 10G 7G18G25G16G 4G 1G14R11R 8R 1
   1326657.486 3   1033758.614 2  24150100.013    24150104.306    24150100.013
     -2825.385       -2201.629
  -1229722.630 3   -958225.350 2  21243051.510    21243054.314    21243051.510
      2462.870        1919.105
   1160599.378 3    904363.756 2  24120705.492    24120708.411    24120705.492
     -2519.209       -1963.053
   -128402.590 3   -100054.055 2  20138943.143    20138946.377    20138943.143
       155.867         121.477
   -873513.334 3   -680659.938 2  21421746.975    21421749.321    21421746.975
      1688.104        1315.399
     -9031.287 3     -7037.753 2  20330904.122    20330906.840    20330904.122
      -107.607         -83.858
    987644.626 3    769592.779 2  21293735.821    21293739.370    21293735.821
     -2142.284       -1669.297
  18274222.988 3  14213276.699 2  19559221.081    19559222.972    19559221.081
      1038.303         807.569
   -598955.278 3   -465852.825 2  22398632.006    22398636.131    22398632.006
     -3571.204       -2777.397
    232870.930 3    181121.660 2  19266286.081    19266292.154    19266286.081
      -633.044        -492.380
 00  2 17  0  8 30.0000000  0 11G 7G18G25G16G 4G 1G14R11R 8R 1R10
   1411488.454 3   1099860.612 2  24166243.047    24166248.284    24166243.047
     -2830.754       -2205.738
  -1303456.169 3  -1015680.042 2  21229020.533    21229023.423    21229020.533
      2451.562        1910.292
   1236316.734 3    963364.297 2  24135114.484    24135117.889    24135114.484
     -2529.797       -1971.273
   -132918.955 3   -103573.309 2  20138083.694    20138086.842    20138083.694
       144.063         112.280
   -923943.684 3   -719956.303 2  21412150.295    21412152.527    21412150.295
      1672.913        1303.590
     -5609.483 3     -4371.407 2  20331555.251    20331557.855    20331555.251
      -121.671         -94.827
   1052020.067 3    819755.449 2  21305986.008    21305989.614    21305986.008
     -2150.676       -1675.853
  18243437.343 3  14189332.322 2  19553467.854    19553470.604    19553467.854
      1012.973         787.828
   -491736.648 3   -382460.582 2  22418641.355    22418644.736    22418641.355
     -3577.944       -2782.839
    252102.384 3    196079.451 2  19269882.232    19269888.305    19269882.232
      -650.230        -505.732
  -1113938.919 3                  21262405.101                    21262405.101
     -3048.579
 00  2 17  0  9  0.0000000  0 11G 7G18G25G16G 4G 1G14R11R 8R 1R10
   1496497.755 3   1166101.593 1  24182419.382    24182423.875    24182419.382
     -2837.547       -2211.143
  -1376827.366 3  -1072852.383 2  21215058.647    21215061.451    21215058.647
      2438.873        1900.404
   1312388.260 3   1022640.806 2  24149590.538    24149592.827    24149590.538
     -2542.642       -1981.294
   -137059.931 3   -106800.050 2  20137295.776    20137298.781    20137295.776
       130.798         101.920
   -973897.720 3   -758881.521 2  21402643.954    21402646.386    21402643.954
      1656.344        1290.661
     -1739.679 3     -1355.971 2  20332291.417    20332294.165    20332291.417
      -137.341        -107.015
   1116686.185 3    870144.622 2  21318291.477    21318294.653    21318291.477
     -2161.404       -1684.226
  18213441.274 3  14166002.051 2  19547862.296    19547864.702    19547862.296
       985.766         766.715
   -384290.707 3   -298891.567 2  22438691.847    22438694.884    22438691.847
     -3586.234       -2789.265
    271878.930 3    211461.199 2  19273580.950    19273586.622    19273580.950
      -669.271        -520.537
  -1022213.018 3                  21279515.756                    21279515.756
     -3067.358
 00  2 17  0  9 30.0000000  0 11G 7G18G25G16G 4G 1G14R11R 8R 1R10
   1581711.522 3   1232501.880 1  24198633.841    24198638.477    24198633.841
     -2842.069       -2214.685
  -1449815.308 3  -1129726.085 2  21201169.409    21201171.985    21201169.409
      2428.222        1892.101
   1388844.628 3   1082217.195 2  24164139.909    24164142.084    24164139.909
     -2553.000       -1989.415
   -140791.256 3   -109707.589 2  20136585.599    20136588.546    20136585.599
       119.108          92.818
  -1023355.770 3   -797420.261 2  21393232.068    21393234.501    21393232.068
      1642.189        1279.620
      2612.262 3      2035.161 2  20333119.548    20333122.324    20333119.548
      -151.641        -118.166
   1181689.845 3    920796.803 2  21330661.505    21330664.567    21330661.505
     -2170.934       -1691.627
  18184264.335 3  14143308.894 2  19542409.937    19542412.343    19542409.937
       960.605         747.116
   -276589.967 3   -215124.375 2  22458789.023    22458793.663    22458789.023
     -3592.580       -2794.221
    292228.795 3    227288.863 2  19277386.316    19277392.504    19277386.316
      -686.164        -533.697
  -1248831.501 3                  21296732.354                    21296732.354
     -3083.799
 00  2 17  0 10  0.0000000  0 11G 7G18G25G16G 4G 1G14R11R 8R 1R10
   1667151.401 3   1299078.344 1  24214893.191    24214899.974    24214893.191
     -2851.520       -2221.907
  -1522407.092 3  -1186291.088 2  21187355.483    21187358.088    21187355.483
      2413.497        1880.639
   1465684.911 3   1142092.741 2  24178764.004    24178765.778    24178764.004
     -2567.346       -2000.550
   -144078.345 3   -112268.964 2  20135960.062    20135963.152    20135960.062
       102.191          79.613
  -1072318.470 3   -835573.020 2  21383915.272    21383917.476    21383915.272
      1624.190        1265.584
      7484.418 3      5831.661 2  20334046.550    20334049.441    20334046.550
      -170.903        -133.163
   1247060.401 3    971734.892 2  21343101.330    21343104.392    21343101.330
     -2184.738       -1702.395
  18155924.934 3  14121267.146 2  19537113.663    19537116.127    19537113.663
       930.899         724.018
   -168618.239 3   -131146.406 2  22478937.599    22478941.438    22478937.599
     -3603.283       -2802.570
    313170.025 3    243576.483 2  19281302.137    19281308.210    19281302.137
      -707.665        -550.424
  -1155969.462 3                  21314055.084                    21314055.084
     -3104.252
 00  2 17  0 10 30.0000000  0 11G 7G18G25G16G 4G 1G14R11R 8R 1R10
   1752779.239 3   1365801.306 2  24231187.327    24231193.794    24231187.327
     -2857.579       -2226.756
  -1594637.065 3  -1242574.145 2  21173610.425    21173613.345    21173610.425
      2401.020        1870.930
   1542868.329 3   1202235.687 2  24193450.467    24193451.812    24193450.467
     -2578.872       -2009.529
   -146936.192 3   -114495.882 2  20135416.423    20135419.629    20135416.423
        87.874          68.484
  -1120820.719 3   -873366.979 2  21374685.683    21374688.516    21374685.683
      1608.486        1253.362
     12846.540 3     10009.950 2  20335067.001    20335069.834    20335067.001
      -187.160        -145.839
   1312757.442 3   1022927.365 2  21355602.960    21355606.194    21355602.960
     -2195.676       -1710.905
  18128391.647 3  14099852.382 2  19531969.001    19531970.548    19531969.001
       904.006         703.123
    -60409.804 3    -46984.353 2  22499130.934    22499135.575    22499130.934
     -3611.239       -2808.701
    334670.245 3    260298.871 2  19285323.133    19285329.034    19285323.133
      -726.332        -564.927
  -1062568.541 3                  21331479.280                    21331479.280
     -3122.704
 00  2 17  0 11  0.0000000  0 11G 7G18G25G16G 4G 1G14R11R 8R 1R10
   1838605.304 3   1432678.670 1  24247521.809    24247527.246    24247521.809
     -2863.571       -2231.355
  -1666473.619 3  -1298550.663 2  21159940.722    21159943.584    21159940.722
      2388.966        1861.546
   1620417.785 3   1262663.817 2  24208205.826    24208208.716    24208205.826
     -2590.170       -2018.340
   -149362.253 3   -116386.322 2  20134954.716    20134958.007    20134954.716
        74.671          58.188
  -1168826.578 3   -910774.134 2  21365550.281    21365552.885    21365550.281
      1592.668        1241.047
     18704.160 3     14574.339 2  20336181.876    20336184.710    20336181.876
      -202.388        -157.705
   1378796.971 3   1074386.732 2  21368169.954    21368172.758    21368169.954
     -2205.991       -1718.956
  18101681.130 3  14079077.549 2  19526976.930    19526979.509    19526976.930
       877.447         682.439
     48051.452 3     37374.346 2  22519372.146    22519375.870    22519372.146
     -3618.719       -2814.535
    356748.114 3    277470.543 2  19289451.821    19289457.436    19289451.821
      -744.645        -579.169
  -1334758.215 3                  21349004.926                    21349004.926
     -3139.785
 00  2 17  0 11 30.0000000  0 10G 7G18G25G16G 4G 1G14R11R 8R 1
   1924630.659 3   1499711.375 1  24263890.855    24263895.005    24263890.855
     -2872.117       -2237.963
  -1737934.962 3  -1354234.794 2  21146341.766    21146344.713    21146341.766
      2374.292        1850.088
   1698315.127 3   1323363.033 2  24223028.721    24223032.699    24223028.721
     -2603.765       -2028.893
   -151370.529 3   -117951.229 2  20134572.651    20134575.684    20134572.651
        58.581          45.663
  -1216335.529 3   -947794.098 2  21356509.795    21356512.056    21356509.795
      1573.673        1226.248
     25029.350 3     19503.061 2  20337385.416    20337388.249    20337385.416
      -219.964        -171.395
   1445150.027 3   1126090.393 2  21380796.998    21380799.545    21380796.998
     -2218.289       -1728.551
  18075777.879 3  14058930.595 2  19522136.195    19522138.602    19522136.195
       848.588         660.013
    156746.842 3    121915.210 2  22539655.978    22539658.098    22539655.978
     -3628.507       -2822.184
    379385.549 3    295077.431 2  19293685.011    19293690.797    19293685.011
      -765.263        -595.207
 00  2 17  0 12  0.0000000  0 11G 7G18G25G16G 4G 1G14R11R 8R 1R10
   2010853.598 3   1566898.052 1  24280296.220    24280302.287    24280296.220
     -2877.051       -2241.829
  -1809010.341 3  -1409618.199 2  21132816.636    21132819.928    21132816.636
      2362.905        1841.201
   1776562.201 3   1384334.766 2  24237920.402    24237924.523    24237920.402
     -2613.884       -2036.821
   -152957.667 3   -119187.959 2  20134270.872    20134274.078    20134270.872
        46.241          36.036
  -1263318.570 3   -984404.246 2  21347568.890    21347571.523    21347568.890
      1557.299        1213.476
     31817.879 3     24792.827 2  20338677.176    20338680.067    20338677.176
      -233.681        -182.068
   1511806.999 3   1178030.870 2  21393481.280    21393484.514    21393481.280
     -2226.749       -1735.133
  18050685.564 3  14039414.371 2  19517447.274    19517449.738    19517447.274
       823.055         640.137
    265677.192 3    206638.786 2  22559984.088    22559984.603    22559984.088
     -3634.788       -2827.057
    402586.532 3    313122.630 2  19298023.839    19298029.855    19298023.839
      -782.614        -608.679
  -1275026.036 3                  21384355.779                    21384355.779
     -3175.903
 00  2 17  0 12 30.0000000  0 11G 7G18G25G16G 4G 1G14R11R 8R 1R10
   2097230.152 3   1634204.414 1  24296733.355    24296739.823    24296733.355
     -2882.433       -2246.015
  -1879722.701 3  -1464718.718 2  21119360.662    21119363.152    21119360.662
      2350.129        1831.249
   1855125.806 3   1445553.146 2  24252870.014    24252871.588    24252870.014
     -2624.999       -2045.495
   -154179.058 3   -120139.701 2  20134038.316    20134041.235    20134038.316
        34.116          26.567
  -1309792.161 3  -1020617.431 2  21338725.544    21338728.091    21338725.544
      1539.787        1199.846
     39018.481 3     30403.693 2  20340047.292    20340050.182    20340047.292
      -247.565        -192.920
   1578739.162 3   1230185.772 2  21406217.595    21406220.485    21406217.595
     -2236.437       -1742.670
  18026375.199 3  14020506.328 2  19512904.698    19512906.990    19512904.698
       796.539         619.513
    374812.764 3    291521.982 2  22580349.993    22580351.998    22580349.993
     -3642.078       -2832.697
    426320.964 3    331582.737 2  19302462.404    19302468.591    19302462.404
      -800.881        -622.929
  -1179514.565 3                  21402173.832                    21402173.832
     -3192.596
 00  2 17  0 13  0.0000000  0 11G 7G18G25G16G 4G 1G14R11R 8R 1R10
   2183786.455 3   1701650.885 1  24313207.068    24313209.930    24313207.068
     -2887.967       -2250.418
  -1950045.392 3  -1519515.606 2  21105978.672    21105981.247    21105978.672
      2338.038        1821.861
   1934049.144 3   1507051.859 2  24267888.982    24267892.502    24267888.982
     -2636.455       -2054.371
   -155020.133 3   -120795.086 2  20133878.118    20133881.180    20133878.118
        21.869          17.035
  -1355726.629 3  -1056410.508 2  21329984.554    21329986.672    21329984.554
      1522.650        1186.455
     46657.542 3     36356.211 2  20341501.241    20341503.903    20341501.241
      -261.768        -203.968
   1645968.978 3   1282572.627 2  21419010.959    21419014.107    21419010.959
     -2245.442       -1749.698
  18002872.981 3  14002226.836 2  19508512.518    19508514.810    19508512.518
       770.343         599.168
    484177.540 3    376583.460 2  22600757.979    22600761.588    22600757.979
     -3648.802       -2837.953
    450615.569 3    350478.532 2  19307005.354    19307011.484    19307005.354
      -818.686        -636.759
  -1083486.272 3                  21420086.337                    21420086.337
     -3209.099
 00  2 17  0 13 30.0000000  0 11G 7G18G25G16G 4G 1G14R11R 8R 1R10
   2270535.474 3   1769247.454 2  24329714.380    24329717.271    24329714.380
     -2894.306       -2255.384
  -2019970.006 3  -1574002.294 2  21092672.653    21092675.429    21092672.653
      2324.344        1811.184
   2013336.424 3   1568834.137 2  24282975.989    24282978.879    24282975.989
     -2648.531       -2063.755
   -155454.895 3   -121133.870 2  20133795.485    20133798.490    20133795.485
         7.960           6.209
  -1401120.869 3  -1091782.646 2  21321346.348    21321348.838    21321346.348
      1504.471        1172.316
     54761.446 3     42670.945 2  20343043.524    20343046.214    20343043.524
      -277.666        -216.380
   1713492.227 3   1335188.129 2  21431860.404    21431863.494    21431860.404
     -2255.356       -1757.421
  17980183.052 3  13984579.124 2  19504272.371    19504274.090    19504272.371
       743.134         577.996
    593772.760 3    461824.151 2  22621209.292    22621212.615    22621209.292
     -3656.708       -2844.119
    475473.973 3    369812.831 2  19311653.972    19311659.758    19311653.972
      -837.732        -651.567
   -986940.335 3                  21438097.266                    21438097.266
     -3226.443
 00  2 17  0 14  0.0000000  0 11G 7G18G25G16G 4G 1G14R11R 8R 1R10
   2357443.388 3   1836967.895 2  24346253.008    24346256.757    24346253.008
     -2899.295       -2259.130
  -2089508.474 3  -1628188.098 2  21079439.624    21079442.400    21079439.624
      2311.902        1801.489
   2092951.364 3   1630871.743 2  24298127.732    24298129.706    24298127.732
     -2658.804       -2071.815
   -155506.005 3   -121173.696 2  20133785.743    20133788.691    20133785.743
        -4.374          -3.408
  -1446003.344 3  -1126756.003 2  21312805.322    21312807.840    21312805.322
      1488.036        1159.528
     63315.468 3     49336.405 2  20344671.086    20344673.891    20344671.086
      -292.395        -227.829
   1781281.154 3   1388010.636 2  21444760.405    21444763.468    21444760.405
     -2263.596       -1763.856
  17958283.997 3  13967546.534 2  19500180.001    19500182.522    19500180.001
       717.095         557.720
    703575.985 3    547226.608 2  22641701.126    22641703.933    22641701.126
     -3663.268       -2849.190
    500874.775 3    389568.998 2  19316404.046    19316410.176    19316404.046
      -855.420        -665.333
   -889904.660 3                  21456198.888                    21456198.888
     -3242.097
 00  2 17  0 14 30.0000000  0 11G 7G18G25G16G 4G 1G14R11R 8R 1R10
   2444543.171 3   1904837.820 2  24362825.616    24362827.877    24362825.616
     -2906.940       -2265.111
  -2158640.863 3  -1682057.467 2  21066284.335    21066286.653    21066284.335
      2297.480        1790.221
   2172917.902 3   1693183.340 2  24313343.094    24313346.271    24313343.094
     -2671.899       -2082.008
   -155137.068 3   -120886.208 2  20133855.844    20133858.964    20133855.844
       -20.013         -15.602
  -1490359.126 3  -1161318.947 2  21304364.592    21304366.996    21304364.592
      1469.448        1145.025
     72353.959 3     56379.390 2  20346391.057    20346393.948    20346391.057
      -309.824        -241.423
   1849360.101 3   1441059.143 2  21457715.169    21457718.174    21457715.169
     -2274.455       -1772.332
  17937204.688 3  13951151.522 2  19496240.912    19496243.261    19496240.912
       688.646         535.612
    813614.370 3    632811.950 2  22662236.573    22662238.120    22662236.573
     -3672.137       -2856.085
    526846.580 3    409769.279 2  19321261.014    19321267.030    19321261.014
      -875.606        -681.037
   -792349.751 3                  21474397.659                    21474397.659
     -3260.776
 00  2 17  0 15  0.0000000  0 10G 7G18G25G16G 4G 1G14R11R 8R 1
   2531816.836 3   1972843.205 1  24379433.766    24379439.719    24379433.766
     -2912.035       -2269.120
  -2227399.805 3  -1735635.836 2  21053199.844    21053202.677    21053199.844
      2285.739        1781.078
   2253221.612 3   1755757.689 2  24328625.722    24328628.498    24328625.722
     -2682.098       -2089.920
   -154332.222 3   -120259.042 2  20134008.986    20134011.991    20134008.986
       -34.277         -26.725
  -1534212.158 3  -1195490.141 2  21296020.317    21296022.148    21296020.317
      1453.573        1132.639
     81866.590 3     63791.834 2  20348201.236    20348204.012    20348201.236
      -324.850        -253.137
   1917710.940 3   1494319.507 2  21470722.455    21470725.517    21470722.455
     -2283.098       -1779.021
  17916927.156 3  13935380.123 2  19492451.334    19492453.626    19492451.334
       662.601         515.340
    923866.488 3    718563.566 2  22682809.496    22682814.308    22682809.496
     -3678.589       -2861.137
    553370.642 3    430399.096 2  19326221.118    19326227.363    19326221.118
      -893.298        -694.767
 00  2 17  0 15 30.0000000  0 11G 7G18G25G16G 4G 1G14R11R 8R 1R10
   2619246.762 3   2040970.341 1  24396072.224    24396077.060    24396072.224
     -2917.530       -2273.387
  -2295794.847 3  -1788930.650 2  21040184.873    21040187.535    21040184.873
      2272.864        1771.044
   2333827.011 3   1818567.076 2  24343965.462    24343969.555    24343965.462
     -2692.861       -2098.302
   -153086.009 3   -119287.954 2  20134246.098    20134249.390    20134246.098
       -49.735         -38.753
  -1577585.300 3  -1229287.377 2  21287766.286    21287768.776    21287766.286
      1436.830        1119.596
     91833.826 3     71558.511 2  20350097.979    20350100.726    20350097.979
      -340.616        -265.407
   1986342.182 3   1547798.380 2  21483782.165    21483784.941    21483782.165
     -2293.486       -1787.124
  17897441.801 3  13920224.857 2  19488809.906    19488812.140    19488809.906
       635.266         494.099
   1034322.095 3    804473.450 2  22703422.392    22703425.142    22703422.392
     -3686.232       -2867.052
    580438.566 3    451451.913 2  19331282.876    19331288.490    19331282.876
      -912.326        -709.575
  -1436427.578 3                  21511068.336                    21511068.336
     -3293.352
 00  2 17  0 16  0.0000000  0 11G 7G18G25G16G 4G 1G14R11R 8R 1R10
   2706845.438 3   2109229.007 1  24412742.319    24412746.468    24412742.319
     -2922.506       -2277.291
  -2363803.383 3  -1841924.307 2  21027243.228    21027245.489    21027243.228
      2260.910        1761.778
   2414761.709 3   1881633.027 2  24359366.610    24359367.984    24359366.610
     -2703.157       -2106.301
   -151378.858 3   -117957.698 2  20134570.969    20134574.089    20134570.969
       -64.121         -49.975
  -1620458.020 3  -1262694.691 2  21279607.998    21279610.087    21279607.998
      1421.094        1107.350
    102271.653 3     79691.889 2  20352084.188    20352086.964    20352084.188
      -355.382        -276.929
   2055290.983 3   1601524.702 2  21496902.242    21496905.648    21496902.242
     -2303.426       -1794.869
  17878779.503 3  13905709.747 2  19485322.466    19485324.815    19485322.466
       608.785         473.484
   1145010.680 3    890564.528 2  22724077.357    22724081.310    22724077.357
     -3693.118       -2872.440
    608080.355 3    472951.072 2  19336452.128    19336458.201    19336452.128
      -930.575        -723.773
  -1337391.009 3                  21529543.258                    21529543.258
     -3309.201
 00  2 17  0 16 30.0000000  0 11G 7G18G25G16G 4G 1G14R11R 8R 1R10
   2794621.292 3   2177625.754 1  24429442.501    24429448.854    24429442.501
     -2927.755       -2281.374
  -2431419.811 3  -1894612.408 2  21014376.382    21014378.900    21014376.382
      2248.143        1751.821
   2496045.907 3   1944971.368 2  24374833.954    24374835.385    24374833.954
     -2714.536       -2115.240
   -149211.033 3   -116268.485 2  20134983.479    20134986.484    20134983.479
       -78.898         -61.437
  -1662826.082 3  -1295708.753 2  21271545.447    21271547.622    21271545.447
      1404.784        1094.637
    113178.997 3     88191.121 2  20354159.630    20354162.464    20354159.630
      -370.372        -288.600
   2124584.458 3   1655519.611 2  21510088.435    21510091.583    21510088.435
     -2314.712       -1803.650
  17860946.530 3  13891839.664 2  19481989.556    19481991.847    19481989.556
       581.623         452.368
   1255935.186 3    976839.083 2  22744777.864    22744781.187    22744777.864
     -3700.386       -2878.075
    636300.639 3    494900.176 2  19341729.253    19341735.384    19341729.253
      -949.313        -738.345
                                  21548111.871

 00  2 17  0 17  0.0000000  0 11G 7G18G25G16G 4G 1G14R11R 8R 1R10
   2882565.395 3   2246153.580 1  24446179.511    24446183.890    24446179.511
     -2933.316       -2285.676
  -2498622.178 3  -1946977.859 2  21001587.721    21001590.554    21001587.721
      2233.746        1740.557
   2577688.167 3   2008588.727 2  24390370.024    24390371.798    24390370.024
     -2726.310       -2124.427
   -146596.179 3   -114230.935 2  20135481.151    20135484.271    20135481.151
       -93.489         -72.839
  -1704687.966 3  -1328328.404 2  21263579.618    21263581.478    21263579.618
      1387.626        1081.264
    124554.178 3     97054.895 2  20356324.219    20356326.995    20356324.219
      -386.166        -300.896
   2194225.954 3   1709785.680 2  21523340.522    21523343.642    21523340.522
     -2326.301       -1812.689
  17843941.673 3  13878613.672 2  19478812.441    19478814.045    19478812.441
       553.959         430.850
   1367093.664 3   1063295.647 2  22765519.986    22765524.684    22765519.986
     -3708.259       -2884.208
    665099.689 3    517299.428 2  19347114.840    19347120.970    19347114.840
      -968.767        -753.471
  -1137797.682 3                  21566776.295                    21566776.295
     -3342.472
 00  2 17  0 17 30.0000000  0 11G 7G18G25G16G 4G 1G14R11R 8R 1R10
   2970670.612 3   2314806.972 1  24462945.042    24462951.939    24462945.042
     -2937.484       -2288.953
  -2565388.139 3  -1999003.261 2  20988882.688    20988885.435    20988882.688
      2220.212        1730.046
   2659686.192 3   2072483.243 2  24405974.886    24405976.661    24405974.886
     -2737.500       -2133.080
   -143556.699 3   -111862.504 2  20136059.617    20136062.478    20136059.617
      -106.289         -82.833
  -1746021.210 3  -1360536.116 2  21255714.236    21255716.240    21255714.236
      1370.458        1067.866
    136406.523 3    106290.500 2  20358579.623    20358582.399    20358579.623
      -401.106        -312.538
   2264205.847 3   1764315.441 2  21536658.033    21536660.981    21536658.033
     -2336.040       -1820.284
  17827767.357 3  13866033.656 2  19475789.877    19475791.997    19475789.877
       527.319         410.116
   1478486.835 3   1149934.715 2  22786308.201    22786312.040    22786308.201
     -3715.098       -2889.496
    694479.811 3    540150.636 2  19352609.127    19352615.487    19352609.127
      -987.105        -767.758
  -1037246.251 3                  21585534.517                    21585534.517
     -3358.034
 00  2 17  0 18  0.0000000  0 12G 7G18G25G16G 4G 1G24G14R11R 8R 1R10
   3058905.217 3   2383561.186 1  24479735.678    24479739.026    24479735.678
     -2944.700       -2294.588
  -2631751.371 3  -2050714.835 2  20976253.814    20976256.762    20976253.814
      2204.168        1717.547
   2742012.320 3   2136633.461 2  24421639.302    24421640.676    24421639.302
     -2750.912       -2143.573
   -140146.868 3   -109205.485 2  20136708.241    20136711.618    20136708.241
      -121.104         -94.366
  -1786826.586 3  -1392332.510 2  21247949.131    21247951.163    21247949.131
      1349.764        1051.761
    148692.617 3    115864.076 2  20360917.623    20360920.514    20360917.623
      -418.023        -325.726
         0.403 3         0.902 2  24199798.070    24199802.020    24199798.070
      3291.957        2565.208
   2334462.446 3   1819060.807 2  21550027.188    21550030.623    21550027.188
     -2347.827       -1829.459
  17812388.287 3  13854072.163 2  19472915.830    19472917.663    19472915.830
       498.061         387.404
   1590077.474 3   1236727.432 2  22807131.661    22807136.245    22807131.661
     -3724.253       -2896.629
    724405.510 3    563426.172 2  19358205.537    19358211.496    19358205.537
     -1008.036        -784.024
                                  21604378.098

 00  2 17  0 18 30.0000000  0 12G 7G18G25G16G 4G 1G24G14R11R 8R 1R10
   3147240.578 3   2452393.881 2  24496546.308    24496553.720    24496546.308
     -2947.071       -2296.340
  -2697747.876 3  -2102140.654 2  20963695.075    20963697.880    20963695.075
      2192.737        1708.637
   2824628.943 3   2201010.074 2  24437358.992    24437361.224    24437358.992
     -2759.586       -2150.356
   -136396.918 3   -106283.443 2  20137421.878    20137424.940    20137421.878
      -131.830        -102.718
  -1827109.387 3  -1423721.691 2  21240283.531    21240285.591    21240283.531
      1332.948        1038.669
    161379.436 3    125749.919 2  20363331.843    20363334.647    20363331.843
      -430.659        -335.558
    -98741.003 3    -76940.409 2  24181007.176    24181010.467    24181007.176
      3287.803        2561.927
   2404962.558 3   1873995.942 2  21563443.172    21563446.291    21563443.172
     -2354.906       -1834.997
  17797775.377 3  13842706.583 2  19470185.188    19470186.849    19470185.188
       473.320         368.151
   1701834.961 3   1323649.870 2  22827987.575    22827992.674    22827987.575
     -3729.028       -2900.355
    754847.727 3    587103.455 2  19363898.563    19363904.235    19363898.563
     -1024.371        -796.765
   -834789.611 3                  21623302.490                    21623302.490
     -3389.661
 00  2 17  0 19  0.0000000  0 12G 7G18G25G16G 4G 1G24G14R11R 8R 1R10
   3235732.296 3   2521348.422 1  24513387.659    24513390.206    24513387.659
     -2953.074       -2301.065
  -2763306.445 3  -2153225.231 2  20951219.755    20951222.760    20951219.755
      2177.408        1696.670
   2907585.149 3   2265651.273 2  24453148.075    24453147.961    24453148.075
     -2771.266       -2159.486
   -132230.114 3   -103036.572 2  20138214.896    20138217.958    20138214.896
      -146.623        -114.244
  -1866792.135 3  -1454643.319 2  21232732.179    21232734.182    21232732.179
      1311.993        1022.339
    174539.424 3    136004.454 2  20365836.179    20365838.869    20365836.179
      -447.203        -348.482
   -197259.873 3   -153708.384 2  24162259.382    24162259.611    24162259.382
      3279.663        2555.520
   2475753.469 3   1929157.668 2  21576914.377    21576917.267    21576914.377
     -2365.244       -1843.023
  17784000.665 3  13831992.923 2  19467610.997    19467612.773    19467610.997
       444.479         345.687
   1813829.839 3   1410756.960 2  22848886.765    22848890.604    22848886.765
     -3737.816       -2907.193
    785878.371 3    611238.386 2  19369701.297    19369706.912    19369701.297
     -1044.836        -812.635
   -732848.616 3                  21642318.088                    21642318.088
     -3406.880
 00  2 17  0 19 30.0000000  0 12G 7G18G25G16G 4G 1G24G14R11R 8R 1R10
   3324348.377 3   2590399.912 1  24530246.252    24530252.719    24530246.252
     -2957.108       -2304.324
  -2828473.764 3  -2204004.930 2  20938819.091    20938821.753    20938819.091
      2164.860        1686.915
   2990836.487 3   2330522.454 2  24468990.068    24468992.157    24468990.068
     -2781.058       -2167.049
   -127665.662 3    -99479.852 2  20139083.402    20139086.521    20139083.402
      -159.939        -124.638
  -1905902.994 3  -1485119.301 2  21225289.620    21225291.652    21225289.620
      1293.330        1007.777
    188132.052 3    146596.117 2  20368422.934    20368425.538    20368422.934
      -461.130        -359.315
   -295591.166 3   -230330.186 2  24143546.028    24143550.751    24143546.028
      3273.517        2550.790
   2546806.280 3   1984523.476 2  21590435.373    21590438.492    21590435.373
     -2373.841       -1849.753
  17771034.475 3  13821908.116 2  19465187.776    19465189.896    19465187.776
       417.690         324.881
   1926030.890 3   1498024.387 2  22869825.442    22869828.880    22869825.442
     -3744.529       -2912.402
    817467.385 3    635807.615 2  19375608.837    19375614.509    19375608.837
     -1063.342        -827.037
   -630443.284 3                  21661422.278                    21661422.278
     -3422.277
 00  2 17  0 20  0.0000000  0 12G 7G18G25G16G 4G 1G24G14R11R 8R 1R10
   3413100.471 3   2659557.349 1  24547138.177    24547141.068    24547138.177
     -2959.966       -2306.494
  -2893261.735 3  -2254489.056 2  20926490.310    20926492.971    20926490.310
      2154.062        1678.487
   3074378.122 3   2395619.809 2  24484887.252    24484888.340    24484887.252
     -2788.694       -2173.006
   -122695.880 3    -95607.294 2  20140029.017    20140032.165    20140029.017
      -171.795        -133.857
  -1944464.570 3  -1515167.275 2  21217951.410    21217953.327    21217951.410
      1277.324         995.301
    202143.880 3    157514.437 2  20371089.295    20371091.928    20371089.295
      -473.564        -369.017
   -393730.872 3   -306802.681 2  24124871.084    24124877.152    24124871.084
      3268.800        2547.096
   2618126.495 3   2040097.643 2  21604007.120    21604009.839    21604007.120
     -2381.391       -1855.633
  17758875.767 3  13812451.351 2  19462915.729    19462917.505    19462915.729
       392.736         305.466
   2038434.735 3   1585449.578 2  22890802.359    22890805.568    22890802.359
     -3749.389       -2916.172
    849614.174 3    660810.662 2  19381620.277    19381626.064    19381620.277
     -1080.044        -840.014
   -527580.842 3                  21680611.676                    21680611.676
     -3435.536
 00  2 17  0 20 30.0000000  0 12G 7G18G25G16G 4G 1G24G14R11R 8R 1R10
   3502003.185 3   2728832.169 1  24564054.597    24564060.778    24564054.597
     -2965.325       -2310.657
  -2957651.405 3  -2304662.800 2  20914237.270    20914239.932    20914237.270
      2140.151        1667.673
   3158224.264 3   2460954.472 2  24500841.449    24500845.084    24500841.449
     -2799.215       -2181.232
   -117285.017 3    -91391.047 2  20141058.999    20141062.090    20141058.999
      -187.176        -145.855
  -1982491.178 3  -1544798.402 2  21210715.101    21210717.218    21210715.101
      1259.499         981.436
    216619.114 3    168793.841 2  20373843.524    20373846.443    20373843.524
      -489.744        -381.614
   -491653.042 3   -383105.668 2  24106238.921    24106242.641    24106238.921
      3261.061        2541.053
   2689755.942 3   2095912.780 2  21617637.586    21617640.963    21617637.586
     -2392.133       -1863.995
  17747541.080 3  13803635.492 2  19460797.313    19460799.777    19460797.313
       364.674         283.653
   2151058.410 3   1673045.709 2  22911819.474    22911822.396    22911819.474
     -3757.111       -2922.190
    882336.772 3    686261.571 2  19387739.984    19387745.369    19387739.984
     -1099.665        -855.284
   -424246.477 3                  21699888.086                    21699888.086
     -3452.657
 00  2 17  0 21  0.0000000  0 12G 7G18G25G16G 4G 1G24G14R11R 8R 1R10
   3591059.111 3   2798226.325 1  24581002.569    24581005.946    24581002.569
     -2971.789       -2315.696
  -3021638.868 3  -2354523.167 2  20902060.970    20902063.804    20902060.970
      2125.750        1656.449
   3242364.940 3   2526518.642 2  24516853.296    24516855.271    24516853.296
     -2810.116       -2189.707
   -111433.026 3    -86831.061 2  20142172.402    20142175.493    20142172.402
      -202.791        -158.047
  -2020005.576 3  -1574030.399 2  21203576.438    21203579.071    21203576.438
      1241.323         967.259
    231564.015 3    180439.224 2  20376687.689    20376690.465    20376687.689
      -506.461        -394.645
   -589358.063 3   -459239.428 2  24087646.935    24087649.052    24087646.935
      3252.649        2534.499
   2761686.844 3   2151962.810 2  21631325.669    21631328.674    21631325.669
     -2403.221       -1872.632
  17737023.565 3  13795455.214 2  19458832.179    19458834.241    19458832.179
       336.523         261.733
   2263890.678 3   1760804.113 2  22932874.915    22932877.722    22932874.915
     -3765.046       -2928.370
    915625.681 3    712152.939 2  19393965.103    19393970.260    19393965.103
     -1119.559        -870.783
   -320450.200 3                  21719250.065                    21719250.065
     -3467.401
 00  2 17  0 21 30.0000000  0 13G 7G18G25G16G 4G 1G22G24G14R11R 8R 1
                                R10
   3680279.881 3   2867748.964 1  24597980.563    24597983.110    24597980.563
     -2977.481       -2320.099
  -3085229.425 3  -2404074.253 2  20889960.010    20889962.529    20889960.010
      2112.365        1646.005
   3326807.954 3   2592318.363 2  24532921.553    24532923.757    24532921.553
     -2820.522       -2197.832
   -105145.503 3    -81931.695 2  20143368.841    20143371.817    20143368.841
      -217.412        -169.418
  -2057000.410 3  -1602857.533 2  21196536.352    21196538.727    21196536.352
      1223.823         953.623
    246977.211 3    192449.516 2  20379620.572    20379623.233    20379620.572
      -522.158        -406.881
                                  24619499.754

   -686841.127 3   -535200.247 2  24069095.697    24069101.421    24069095.697
      3244.980        2528.544
   2833925.407 3   2208252.593 2  21645071.746    21645075.151    21645071.746
     -2413.688       -1880.788
  17727320.524 3  13787908.416 2  19457018.662    19457021.183    19457018.662
       309.265         240.514
   2376929.715 3   1848723.305 2  22953969.523    22953973.533    22953969.523
     -3771.967       -2933.727
    949479.646 3    738483.777 2  19400295.665    19400301.452    19400295.665
     -1138.591        -885.582
                                  21738698.319

 00  2 17  0 22  0.0000000  0 13G 7G18G25G16G 4G 1G22G24G14R11R 8R 1
                                R10
   3769642.669 3   2937382.273 1  24614984.315    24614991.584    24614984.315
     -2980.536       -2322.483
  -3148442.165 3  -2453330.929 2  20877931.246    20877933.993    20877931.246
      2101.172        1637.282
   3411528.464 3   2658334.336 2  24549043.311    24549047.518    24549043.311
     -2828.126       -2203.764
    -98453.519 3    -76717.170 2  20144642.330    20144645.449    20144642.330
      -229.371        -178.738
  -2093497.569 3  -1631296.877 2  21189591.059    21189593.635    21189591.059
      1208.644         941.797
    262835.336 3    204806.491 2  20382638.147    20382641.123    20382638.147
      -535.734        -417.439
         0.856 2         0.980 1  24605486.030    24605489.894    24605486.030
      2450.350        1909.393
   -784117.287 3   -610999.832 2  24050585.151    24050587.469    24050585.151
      3239.467        2524.269
   2906448.029 3   2264763.700 2  21658872.665    21658875.727    21658872.665
     -2421.814       -1887.119
  17718403.766 3  13780973.167 2  19455352.512    19455354.575    19455352.512
       284.564         221.321
   2490145.105 3   1936779.645 2  22975097.152    22975101.162    22975097.152
     -3776.319       -2937.124
    983871.761 3    765233.185 2  19406727.273    19406732.945    19406727.273
     -1154.865        -898.228
   -111527.733 3                  21758224.425                    21758224.425
     -3495.604
 00  2 17  0 22 30.0000000  0 13G 7G18G25G16G 4G 1G22G24G14R11R 8R 1
                                R10
   3859143.041 3   3007122.752 1  24632016.901    24632018.074    24632016.901
     -2985.548       -2326.409
  -3211259.831 3  -2502279.760 2  20865977.274    20865979.793    20865977.274
      2087.090        1626.343
   3496543.565 3   2724579.854 2  24565222.310    24565223.397    24565222.310
     -2839.009       -2212.217
    -91342.275 3    -71175.948 2  20145995.609    20145998.671    20145995.609
      -244.170        -190.261
  -2129479.290 3  -1659334.582 2  21182743.782    21182746.558    21182743.782
      1190.479         927.627
    279158.455 3    217525.811 2  20385744.516    20385747.435    20385744.516
      -551.843        -430.009
    -73334.653 3    -57143.514 1  24591530.699    24591532.731    24591530.699
      2439.521        1900.912
   -881175.597 3   -686629.646 2  24032114.459    24032117.464    24032114.459
      3231.379        2517.896
   2979268.577 3   2321506.961 2  21672729.564    21672733.027    21672729.564
     -2432.246       -1895.245
  17710285.617 3  13774659.069 2  19453835.392    19453838.084    19453835.392
       257.130         200.011
   2603547.244 3   2024981.284 2  22996259.499    22996262.306    22996259.499
     -3783.373       -2942.632
   1018812.227 3    792409.091 2  19413261.158    19413267.060    19413261.158
     -1174.015        -913.097
     -6425.522 3                  21777831.398                    21777831.398
     -3510.644
 00  2 17  0 23  0.0000000  0 13G 7G18G25G16G 4G 1G22G24G14R11R 8R 1
                                R10
   3948786.966 3   3076975.134 1  24649074.235    24649080.903    24649074.235
     -2990.097       -2329.969
  -3273660.013 3  -2550903.270 2  20854102.947    20854105.924    20854102.947
      2073.364        1615.579
   3581882.138 3   2791077.398 2  24581462.537    24581465.170    24581462.537
     -2849.790       -2220.632
    -83797.923 3    -65297.246 2  20147431.211    20147434.417    20147431.211
      -258.463        -201.408
  -2164908.995 3  -1686942.145 2  21176001.796    21176004.658    21176001.796
      1171.880         913.159
    295945.374 3    230606.530 2  20388938.808    20388941.813    20388938.808
      -566.694        -441.580
   -146359.789 3   -114046.195 1  24577632.719    24577640.503    24577632.719
      2429.002        1892.703
   -977994.202 3   -762072.712 2  24013691.536    24013695.771    24013691.536
      3223.732        2512.016
   3052386.048 3   2378481.591 2  21686643.785    21686646.991    21686643.785
     -2441.887       -1902.779
  17702985.196 3  13768980.983 2  19452471.081    19452473.373    19452471.081
       229.958         178.847
   2717156.194 3   2113343.749 2  23017459.838    23017463.447    23017459.838
     -3790.119       -2947.884
   1054322.025 3    820027.813 2  19419902.028    19419908.216    19419902.028
     -1192.927        -927.849
     99122.233 3                  21797521.053                    21797521.053
     -3525.459
 00  2 17  0 23 30.0000000  0 13G 7G18G25G16G 4G 1G22G24G14R11R 8R 1
                                R10
   4038531.185 3   3146905.635 1  24666155.170    24666158.032    24666155.170
     -2992.699       -2332.008
  -3335668.123 3  -2599221.275 2  20842302.826    20842305.430    20842302.826
      2060.442        1605.522
   3667528.416 3   2857814.793 2  24597759.739    24597760.054    24597759.739
     -2859.703       -2228.339
    -75839.020 3    -59095.506 2  20148945.774    20148948.722    20148945.774
      -272.147        -212.052
  -2199805.643 3  -1714134.338 2  21169361.576    21169364.008    21169361.576
      1154.711         899.776
    313148.928 3    244011.899 2  20392212.567    20392215.429    20392212.567
      -580.319        -452.192
   -219073.859 3   -170706.428 1  24563796.788    24563801.882    24563796.788
      2418.417        1884.471
  -1074611.516 3   -837358.926 2  23995304.978    23995306.724    23995304.978
      3217.335        2506.987
   3125778.881 3   2435670.782 2  21700609.597    21700612.888    21700609.597
     -2450.873       -1909.783
  17696481.762 3  13763922.755 2  19451255.551    19451258.014    19451255.551
       203.648         158.388
   2830947.412 3   2201848.009 2  23038694.896    23038698.276    23038694.896
     -3795.964       -2952.380
   1090379.208 3    848072.273 2  19426644.187    19426650.318    19426644.187
     -1210.862        -941.782
    205092.391 3                  21817288.195                    21817288.195
     -3539.160
 00  2 17  0 24  0.0000000  0 13G 7G18G25G16G 4G 1G22G24G14R11R 8R 1
                                R10
   4128396.190 3   3216930.277 1  24683252.862    24683255.953    24683252.862
     -2997.550       -2335.747
  -3397241.653 3  -2647200.644 2  20830585.807    20830588.612    20830585.807
      2045.128        1593.624
   3753514.033 3   2924816.542 2  24614122.845    24614124.448    24614122.845
     -2872.071       -2238.024
    -67428.959 3    -52542.223 2  20150546.092    20150549.126    20150546.092
      -287.971        -224.389
  -2234143.968 3  -1740891.484 2  21162827.317    21162829.406    21162827.317
      1135.066         884.458
    330810.395 3    257774.088 2  20395573.442    20395576.275    20395573.442
      -596.519        -464.842
   -291412.890 3   -227074.455 1  24550032.323    24550037.389    24550032.323
      2404.860        1873.961
  -1170991.249 3   -912460.009 2  23976964.612    23976967.445    23976964.612
      3208.572        2500.148
   3199476.821 3   2493097.722 2  21714633.865    21714637.070    21714633.865
     -2461.647       -1918.165
  17690810.527 3  13759511.810 2  19450195.863    19450198.155    19450195.863
       174.994         136.117
   2944955.993 3   2290521.307 2  23059971.170    23059974.092    23059971.170
     -3804.049       -2958.680
   1127020.669 3    876571.174 2  19433496.899    19433502.915    19433496.899
     -1231.249        -957.627
    311515.595 3                  21837142.128                    21837142.128
     -3554.383
 00  2 17  0 24 30.0000000  0 13G 7G18G25G16G 4G 1G22G24G14R11R 8R 1
                                R10
   4218340.556 3   3287016.779 1  24700367.576    24700373.471    24700367.576
     -2999.570       -2337.296
  -3458407.817 3  -2694862.569 2  20818946.367    20818949.085    20818946.367
      2032.098        1583.465
   3839817.506 3   2992066.004 2  24630544.907    24630550.029    24630544.907
     -2881.865       -2245.655
    -58588.749 3    -45653.746 2  20152228.444    20152231.477    20152228.444
      -301.742        -235.150
  -2267937.436 3  -1767224.046 2  21156396.575    21156399.122    21156396.575
      1117.349         870.676
    348905.899 3    271874.479 2  20399017.047    20399019.937    20399017.047
      -610.152        -475.448
   -363398.240 3   -283166.854 1  24536334.422    24536336.941    24536334.422
      2393.848        1865.314
  -1267147.127 3   -987386.635 2  23958666.975    23958670.238    23958666.975
      3201.366        2494.555
   3273440.131 3   2550731.438 2  21728709.221    21728712.140    21728709.221
     -2469.584       -1924.317
  17685945.789 3  13755728.130 2  19449287.171    19449289.234    19449287.171
       148.870         115.797
   3059154.724 3   2379342.467 2  23081281.268    23081284.420    23081281.268
     -3809.638       -2963.041
   1164219.899 3    905503.900 2  19440453.329    19440458.943    19440453.329
     -1249.151        -971.541
                                  21857073.307

 00  2 17  0 25  0.0000000  0 13G 7G18G25G16G 4G 1G22G24G14R11R 8R 1
                                R10
   4308367.340 3   3357167.441 1  24717501.386    24717505.879    24717501.386
     -3002.385       -2339.497
  -3519162.394 3  -2742203.791 2  20807385.243    20807387.819    20807385.243
      2018.296        1572.682
   3926430.576 3   3059556.644 2  24647027.438    24647029.699    24647027.438
     -2892.014       -2253.501
    -49316.604 3    -38428.701 2  20153992.868    20153995.844    20153992.868
      -316.301        -246.453
  -2301172.260 3  -1793121.318 2  21150072.145    21150074.549    21150072.145
      1098.465         855.960
    367423.491 3    286303.767 2  20402540.816    20402543.649    20402540.816
      -624.234        -486.422
   -435025.701 3   -338980.393 1  24522703.345    24522707.037    24522703.345
      2381.526        1855.776
  -1363060.245 3  -1062124.094 2  23940414.397    23940419.177    23940414.397
      3193.141        2488.143
   3347661.982 3   2608566.645 2  21742833.005    21742836.010    21742833.005
     -2478.450       -1931.272
  17681890.471 3  13752574.000 2  19448529.145    19448531.322    19448529.145
       121.737          94.678
   3173546.203 3   2468313.580 2  23102626.701    23102631.227    23102626.701
     -3816.203       -2968.178
   1201980.472 3    934873.226 2  19447514.757    19447520.486    19447514.757
     -1268.076        -986.300
    525632.364 3                  21877084.984                    21877084.984
     -3582.674
 00  2 17  0 25 30.0000000  0 13G 7G18G25G16G 4G 1G22G24G14R11R 8R 1
                                R10
   4398480.502 3   3427385.487 1  24734650.165    24734651.252    24734650.165
     -3005.493       -2341.916
  -3579511.044 3  -2789228.705 2  20795901.363    20795903.853    20795901.363
      2004.986        1562.339
   4013333.137 3   3127272.928 2  24663564.814    24663568.019    24663564.814
     -2901.341       -2260.818
    -39620.233 3    -30873.083 2  20155837.998    20155841.031    20155837.998
      -329.998        -257.144
  -2333849.343 3  -1818583.972 2  21143854.204    21143856.122    21143854.204
      1079.973         841.524
    386369.497 3    301066.894 2  20406146.103    20406148.793    20406146.103
      -638.878        -497.837
   -506301.090 3   -394519.653 1  24509141.817    24509142.590    24509141.817
      2370.258        1846.975
  -1458728.110 3  -1136670.473 2  23922209.913    23922212.947    23922209.913
      3184.648        2481.556
   3422149.345 3   2666608.707 2  21757007.375    21757010.752    21757007.375
     -2487.284       -1938.154
  17678639.833 3  13750045.732 2  19447921.482    19447924.003    19447921.482
        94.997          73.871
   3288123.445 3   2557429.191 2  23124009.580    23124011.185    23124009.580
     -3822.234       -2972.846
   1240299.022 3    964676.529 2  19454680.578    19454686.249    19454680.578
     -1286.509       -1000.599
    633318.382 3                  21897172.836                    21897172.836
     -3596.207
 00  2 17  0 26  0.0000000  0 13G 7G18G25G16G 4G 1G22G24G14R11R 8R 1
                                R10
   4488694.052 3   3497681.702 1  24751815.234    24751820.529    24751815.234
     -3008.631       -2344.409
  -3639460.902 3  -2835942.859 2  20784493.020    20784495.911    20784493.020
      1991.887        1552.134
   4100515.793 3   3195207.446 2  24680155.825    24680155.453    24680155.825
     -2910.664       -2268.121
    -29514.494 3    -22998.484 2  20157760.968    20157764.002    20157760.968
      -343.630        -267.775
  -2365959.288 3  -1843604.711 2  21137744.065    21137745.954    21137744.065
      1060.863         826.646
    405754.348 3    316171.971 2  20409834.970    20409837.603    20409834.970
      -653.227        -508.996
   -577252.615 3   -449806.468 1  24495637.779    24495645.133    24495637.779
      2360.064        1838.950
  -1554134.181 3  -1211012.837 2  23904055.730    23904058.448    23904055.730
      3176.018        2474.824
   3496900.607 3   2724856.413 2  21771232.327    21771235.532    21771232.327
     -2496.023       -1944.962
  17676189.686 3  13748140.077 2  19447463.717    19447465.263    19447463.717
        68.418          53.219
   3402881.045 3   2646685.085 2  23145424.200    23145427.523    23145424.200
     -3828.039       -2977.344
   1279170.417 3    994909.831 2  19461949.509    19461955.525    19461949.509
     -1304.793       -1014.803
    741410.690 3                  21917337.849                    21917337.849
     -3610.260
 00  2 17  0 26 30.0000000  0 13G 7G18G25G16G 4G 1G22G24G14R11R 8R 1
                                R10
   4579006.665 3   3568055.135 1  24769000.508    24769009.551    24769000.508
     -3012.612       -2347.516
  -3699011.246 3  -2882345.705 2  20773161.068    20773164.016    20773161.068
      1977.667        1541.053
   4187974.536 3   3263357.117 2  24696797.586    24696797.071    24696797.586
     -2920.238       -2275.594
    -18999.199 3    -14804.742 2  20159761.886    20159765.120    20159761.886
      -357.645        -278.686
  -2397495.861 3  -1868178.664 2  21131742.553    21131744.614    21131742.553
      1041.267         811.387
    425574.143 3    331615.977 2  20413606.791    20413609.109    20413606.791
      -668.338        -520.773
   -647897.129 3   -504854.155 1  24482195.126    24482198.674    24482195.126
      2348.919        1830.353
  -1649288.889 3  -1285159.339 2  23885946.647    23885952.228    23885946.647
      3167.375        2468.119
   3571920.737 3   2783313.634 2  21785508.397    21785511.688    21785508.397
     -2505.750       -1952.547
  17674540.998 3  13746857.775 2  19447155.896    19447157.614    19447155.896
        41.065          31.963
   3517818.930 3   2736081.152 2  23166872.143    23166876.841    23166872.143
     -3834.738       -2982.580
   1318595.855 3   1025574.053 2  19469322.431    19469328.046    19469322.431
     -1323.985       -1029.752
    849907.544 3                  21937577.557                    21937577.557
     -3623.965
 00  2 17  0 27  0.0000000  0 13G 7G18G25G16G 4G 1G22G24G14R11R 8R 1
                                R10
   4669439.717 3   3638522.388 1  24786211.163    24786217.860    24786211.163
     -3016.826       -2350.756
  -3758143.371 3  -2928422.672 2  20761908.795    20761911.228    20761908.795
      1963.798        1530.242
   4275705.044 3   3331718.540 2  24713492.484    24713496.948    24713492.484
     -2928.965       -2282.282
     -8080.773 3     -6296.876 2  20161839.727    20161842.760    20161839.727
      -370.900        -289.011
  -2428453.951 3  -1892301.852 2  21125851.422    21125853.282    21125851.422
      1021.959         796.370
    445836.071 3    347404.499 2  20417462.472    20417464.848    20417462.472
      -683.175        -532.351
   -718219.509 3   -559650.756 1  24468813.549    24468819.158    24468813.549
      2338.550        1822.293
  -1744212.310 3  -1359125.633 2  23867884.901    23867886.417    23867884.901
      3160.242        2462.510
   3647230.055 3   2841996.199 2  21799839.002    21799842.465    21799839.002
     -2515.551       -1960.150
  17673704.077 3  13746206.850 2  19446998.868    19447001.217    19446998.868
        14.110          10.970
   3632947.267 3   2825625.398 2  23188358.552    23188361.244    23188358.552
     -3840.951       -2987.430
   1358586.561 3   1056677.923 2  19476800.833    19476806.104    19476800.833
     -1342.667       -1044.280
    958815.907 3                  21957893.899                    21957893.899
     -3637.406
 00  2 17  0 27 30.0000000  0 13G 7G18G25G16G 4G 1G22G24G14R11R 8R 1
                                R10
   4759995.115 2   3709084.944 1  24803441.741    24803449.297    24803441.741
     -3020.510       -2353.619
  -3816851.051 3  -2974168.906 2  20750737.254    20750739.915    20750737.254
      1949.618        1519.208
   4363694.286 3   3400281.565 1  24730235.086    24730238.949    24730235.086
     -2937.384       -2288.888
      3231.804 3      2518.120 2  20163992.429    20163995.577    20163992.429
      -383.712        -298.985
  -2458833.656 3  -1915974.340 2  21120070.434    21120072.752    21120070.434
      1002.997         781.550
    466546.910 3    363542.816 2  20421403.237    20421405.813    20421403.237
      -697.913        -543.823
   -788222.529 3   -614198.504 1  24455493.254    24455495.057    24455493.254
      2327.865        1813.891
  -1838924.256 3  -1432927.141 2  23849861.631    23849865.866    23849861.631
      3153.572        2457.320
   3722836.380 3   2900910.181 2  21814226.461    21814230.125    21814226.461
     -2525.362       -1967.785
  17673676.563 3  13746185.464 2  19446993.961    19446996.196    19446993.961
       -12.660          -9.865
   3748262.228 3   2915314.773 2  23209876.423    23209880.204    23209876.423
     -3847.175       -2992.235
   1399140.670 3   1088220.012 2  19484384.668    19484390.283    19484384.668
     -1361.228       -1058.752
   1068131.469 3                  21978286.569                    21978286.569
     -3650.652
 00  2 17  0 28  0.0000000  0 13G 7G18G25G16G 4G 1G22G24G14R11R 8R 1
                                R10
   4850653.908 3   3779728.133 1  24820695.131    24820700.368    24820695.131
     -3023.141       -2355.685
  -3875129.536 3  -3019580.692 2  20739646.967    20739649.571    20739646.967
      1935.808        1508.446
   4451935.114 3   3469040.618 2  24747027.293    24747029.496    24747027.293
     -2945.125       -2294.867
     14938.975 3     11640.592 2  20166220.260    20166223.494    20166220.260
      -396.579        -308.996
  -2488649.600 3  -1939207.539 2  21114396.242    21114398.760    21114396.242
       985.264         767.748
    487693.026 3    380020.314 2  20425427.267    20425429.900    20425427.267
      -711.594        -554.489
   -857895.599 3   -668489.205 1  24442234.903    24442237.307    24442234.903
      2317.201        1805.576
  -1933443.642 3  -1506578.613 2  23831874.701    23831877.362    23831874.701
      3147.933        2452.978
   3798736.772 3   2960053.326 2  21828670.004    21828673.038    21828670.004
     -2534.261       -1974.752
  17674453.286 3  13746789.591 2  19447138.909    19447141.487    19447138.909
       -38.776         -30.165
   3863758.524 3   3005145.154 2  23231430.358    23231433.853    23231430.358
     -3852.241       -2996.169
   1440253.291 3   1120196.482 2  19492073.257    19492078.872    19492073.257
     -1379.215       -1072.716
   1177843.674 3                  21998752.734                    21998752.734
     -3663.086
 00  2 17  0 28 30.0000000  0 13G 7G18G25G16G 4G 1G22G24G14R11R 8R 1
                                R10
   4941404.646 3   3850442.979 1  24837963.945    24837969.869    24837963.945
     -3025.943       -2357.929
  -3932956.213 3  -3064640.411 2  20728642.698    20728645.474    20728642.698
      1920.507        1496.515
   4540434.105 3   3538000.876 1  24763866.907    24763869.683    24763866.907
     -2953.781       -2301.603
     27066.517 3     21090.618 2  20168527.917    20168531.036    20168527.917
      -410.760        -320.087
  -2517914.556 3  -1962011.405 2  21108827.293    21108829.496    21108827.293
       966.798         753.365
    509285.596 3    396845.700 2  20429536.382    20429538.757    20429536.382
      -726.708        -566.277
   -927203.114 3   -722495.063 1  24429045.438    24429049.645    24429045.438
      2304.440        1795.647
  -2027759.579 3  -1580071.531 2  23813927.909    23813930.370    23813927.909
      3140.627        2447.227
   3874933.083 3   3019427.034 2  21843169.665    21843173.070    21843169.665
     -2544.476       -1982.727
  17676045.158 3  13748027.730 2  19447436.920    19447439.097    19447436.920
       -66.176         -51.490
   3979444.989 3   3095123.470 2  23253019.415    23253022.050    23253019.415
     -3859.014       -3001.458
   1481935.940 3   1152616.315 2  19499867.996    19499873.954    19499867.996
     -1398.565       -1087.763
   1287961.348 3                  22019294.855                    22019294.855
     -3676.673
 00  2 17  0 29  0.0000000  0 13G 7G18G25G16G 4G 1G22G24G14R11R 8R 1
                                R10
   5032253.396 3   3921234.158 1  24855252.741    24855258.379    24855252.741
     -3029.382       -2360.548
  -3990333.317 3  -3109349.830 2  20717724.252    20717726.971    20717724.252
      1905.558        1484.850
   4629196.745 3   3607166.559 1  24780760.520    24780764.756    24780760.520
     -2962.768       -2308.622
     39625.700 3     30876.981 2  20170917.788    20170921.079    20170917.788
      -425.777        -331.776
  -2546629.120 3  -1984386.394 2  21103363.096    21103365.271    21103363.096
       948.375         738.997
    531326.691 3    414020.578 2  20433730.785    20433733.418    20433730.785
      -741.910        -578.094
   -996124.429 3   -776199.895 1  24415929.934    24415934.026    24415929.934
      2291.280        1785.384
  -2121833.753 3  -1653376.047 2  23796025.751    23796028.756    23796025.751
      3131.610        2440.166
   3951442.768 3   3079044.929 2  21857728.826    21857731.659    21857728.826
     -2555.101       -1990.980
  17678460.010 3  13749905.958 2  19447887.880    19447890.172    19447887.880
       -93.797         -72.955
   4095329.101 3   3185255.503 2  23274643.557    23274648.198    23274643.557
     -3865.736       -3006.696
   1524196.507 3   1185485.628 2  19507771.017    19507776.747    19507771.017
     -1417.927       -1102.833
   1398489.742 3                  22039914.044                    22039914.044
     -3690.683
 00  2 17  0 29 30.0000000  0 13G 7G18G25G16G 4G 1G22G24G14R11R 8R 1
                                R10
   5123178.639 3   3992084.992 1  24872555.334    24872561.229    24872555.334
     -3031.755       -2362.416
  -4047270.550 3  -3153716.501 2  20706889.547    20706892.036    20706889.547
      1890.849        1473.396
   4718225.552 3   3676539.644 2  24797700.211    24797700.411    24797700.211
     -2972.210       -2315.996
     52631.362 3     41011.258 2  20173392.803    20173396.123    20173392.803
      -440.778        -343.455
  -2574811.035 3  -2006346.322 2  21098000.087    21098002.778    21098000.087
       930.739         725.246
    553808.892 3    431539.189 2  20438008.787    20438011.478    20438008.787
      -756.516        -589.506
  -1064649.661 3   -829596.182 1  24402888.222    24402895.606    24402888.222
      2277.393        1774.588
  -2215631.497 3  -1726465.182 2  23778176.572    23778179.806    23778176.572
      3121.927        2432.705
   4028254.318 3   3138898.061 2  21872345.658    21872348.978    21872345.658
     -2565.193       -1998.862
  17681691.092 3  13752419.037 2  19448491.257    19448493.721    19448491.257
      -121.123         -94.220
   4211401.817 3   3275534.247 2  23296304.780    23296309.421    23296304.780
     -3872.077       -3011.570
   1567028.341 3   1218799.264 2  19515780.670    19515786.514    19515780.670
     -1436.973       -1117.679
   1509415.801 3                  22060606.453                    22060606.453
     -3704.122
 00  2 17  0 30  0.0000000  0 13G 7G18G25G16G 4G 1G22G24G14R11R 8R 1
                                R10
   5214163.030 3   4062981.906 1  24889868.392    24889877.121    24889868.392
     -3034.410       -2364.491
  -4103793.459 3  -3197760.318 2  20696133.781    20696136.127    20696133.781
      1876.777        1462.423
   4807542.102 3   3746136.971 2  24814698.733    24814697.989    24814698.733
     -2982.697       -2324.174
     66079.954 3     51490.678 2  20175952.102    20175955.192    20175952.102
      -456.209        -355.504
  -2602469.717 3  -2027898.539 2  21092736.981    21092739.671    21092736.981
       912.468         711.008
    576722.396 3    449393.874 2  20442369.143    20442371.890    20442369.143
      -771.639        -601.300
  -1132773.766 3   -882679.842 1  24389925.801    24389928.520    24389925.801
      2263.598        1763.857
  -2309141.775 3  -1799330.301 2  23760382.387    23760384.677    23760382.387
      3111.410        2424.480
   4105349.384 3   3198972.125 2  21887016.338    21887019.486    21887016.338
     -2574.915       -2006.443
  17685727.103 3  13755558.162 2  19449245.713    19449248.234    19449245.713
      -148.503        -115.512
   4327652.707 3   3365951.585 2  23317997.487    23318003.560    23317997.487
     -3878.602       -3016.694
   1610420.276 3   1252548.527 2  19523895.064    19523900.736    19523895.064
     -1456.425       -1132.787
   1620726.554 3                  22081371.476                    22081371.476
     -3716.514
 00  2 17  0 30 30.0000000  0 13G 7G18G25G16G 4G 1G22G24G14R11R 8R 1
                                R10
   5305206.036 3   4133924.488 1  24907191.755    24907199.024    24907191.755
     -3036.674       -2366.275
  -4159917.516 3  -3241493.330 2  20685453.636    20685456.327    20685453.636
      1863.355        1451.976
   4897145.235 3   3815957.544 1  24831748.547    24831751.924    24831748.547
     -2992.274       -2331.592
     79956.915 3     62303.891 2  20178592.676    20178595.995    20178592.676
      -470.295        -366.450
  -2629585.218 3  -2049027.498 2  21087577.109    21087579.455    21087577.109
       893.507         696.242
    600068.179 3    467585.400 2  20446811.721    20446814.382    20446811.721
      -786.134        -612.581
  -1200498.881 2   -935452.595 1  24377039.817    24377045.741    24377039.817
      2249.912        1753.140
  -2402345.825 3  -1871956.814 2  23742645.063    23742647.782    23742645.063
      3100.839        2416.277
   4182714.714 3   3259256.760 2  21901738.073    21901741.822    21901738.073
     -2584.276       -2013.728
  17690563.692 3  13759319.959 2  19450149.803    19450151.636    19450149.803
      -175.351        -136.388
   4444076.186 3   3456503.167 2  23339724.947    23339728.213    23339724.947
     -3884.443       -3021.254
   1654370.363 3   1286731.918 2  19532114.011    19532119.912    19532114.011
     -1474.988       -1147.218
   1732415.164 3                  22102205.815                    22102205.815
     -3730.006
 00  2 17  0 31  0.0000000  0 12G 7G18G25G16G 4G 1G22G24G14R11R 8R 1
   5396297.465 3   4204904.809 1  24924526.758    24924530.622    24924526.758
     -3037.772       -2367.102
  -4215656.590 3  -3284926.364 2  20674847.029    20674849.404    20674847.029
      1850.894        1442.275
   4987019.978 3   3885989.799 1  24848850.500    24848853.133    24848850.500
     -3000.760       -2338.334
     94239.029 3     73432.805 2  20181310.616    20181313.821    20181310.616
      -483.543        -376.784
  -2656136.426 3  -2069716.753 2  21082524.742    21082526.860    21082524.742
       875.040         681.850
    623821.248 3    486094.294 2  20451331.628    20451334.290    20451331.628
      -799.052        -622.639
  -1267841.724 3   -987927.458 1  24364222.994    24364226.543    24364222.994
      2237.908        1743.825
  -2495261.392 3  -1944358.535 2  23724965.736    23724968.025    23724965.736
      3092.153        2409.485
   4260338.884 3   3319743.096 2  21916509.539    21916513.230    21916509.539
     -2592.025       -2019.749
  17696183.010 3  13763690.544 2  19451199.745    19451202.094    19451199.745
      -200.818        -156.192
   4560653.389 3   3547174.265 2  23361480.698    23361484.135    23361480.698
     -3888.883       -3024.662
   1698859.757 3   1321334.766 2  19540434.099    19540439.714    19540434.099
     -1492.447       -1160.810
 00  2 17  0 31 30.0000000  0 12G18G25G16G 4G 1G22G24G14R11R 8R 1R10
  -4270996.490 3  -3328048.339 2  20664315.851    20664318.856    20664315.851
      1837.397        1431.746
   5077174.210 3   3956239.802 1  24866006.983    24866006.897    24866006.983
     -3010.575       -2345.922
    108943.587 3     84890.905 2  20184108.717    20184111.750    20184108.717
      -497.788        -387.893
  -2682100.345 3  -2089948.374 2  21077583.871    21077586.161    21077583.871
       854.728         666.022
    647990.324 3    504927.333 2  20455931.133    20455933.623    20455931.133
      -813.278        -633.719
  -1334799.099 3  -1040102.009 1  24351481.168    24351487.035    24351481.168
      2224.868        1733.650
  -2587912.223 3  -2016553.982 2  23707334.296    23707336.814    23707334.296
      3083.503        2402.729
   4338212.967 3   3380424.171 2  21931329.031    21931332.494    21931329.031
     -2600.742       -2026.559
  17702590.437 3  13768674.109 2  19452397.316    19452399.436    19452397.316
      -227.511        -176.941
   4677388.851 3   3637968.513 2  23383263.817    23383267.827    23383263.817
     -3894.479       -3029.056
   1743894.805 3   1356362.008 2  19548855.456    19548861.472    19548855.456
     -1510.936       -1175.185
  -2184575.564 3                  22144076.868                    22144076.868
     -3753.506
 00  2 17  0 32  0.0000000  0 12G18G25G16G 4G 1G22G24G14R11R 8R 1R10
  -4325943.124 3  -3370863.883 2  20653859.665    20653862.641    20653859.665
      1825.411        1422.404
   5167596.149 3   4026698.426 1  24883212.055    24883217.921    24883212.055
     -3017.414       -2351.200
    124070.198 3     96677.870 2  20186987.223    20186990.428    20186987.223
      -510.698        -397.932
  -2707458.400 3  -2109707.898 2  21072758.305    21072760.881    21072758.305
       835.904         651.347
    672581.139 3    524089.021 2  20460610.522    20460612.955    20460610.522
      -826.034        -643.647
  -1401392.514 3  -1091992.894 1  24338808.023    24338813.432    24338808.023
      2214.514        1725.580
  -2680317.509 3  -2088558.102 2  23689749.109    23689751.828    23689749.109
      3076.753        2397.503
   4416339.915 3   3441302.285 2  21946196.180    21946198.784    21946196.180
     -2607.828       -2032.089
  17709785.251 3  13774270.096 2  19453741.810    19453743.930    19453741.810
      -252.198        -196.165
   4794281.389 3   3728884.920 2  23405077.243    23405080.909    23405077.243
     -3898.305       -3032.003
   1789475.233 3   1391813.447 2  19557379.265    19557385.109    19557379.265
     -1527.680       -1188.205
  -2071815.495 3                  22165111.423                    22165111.423
     -3763.859
 00  2 17  0 32 30.0000000  0 12G18G25G16G 4G 1G22G24G14R11R 8R 1R10
  -4380477.799 3  -3413358.418 2  20643482.402    20643484.892    20643482.402
      1809.605        1410.095
   5258247.489 3   4097335.775 1  24900461.799    24900469.411    24900461.799
     -3026.867       -2358.606
    139621.451 3    108795.725 2  20189946.609    20189949.700    20189946.609
      -526.848        -410.524
  -2732220.641 3  -2129003.150 2  21068046.372    21068048.375    21068046.372
       814.477         634.680
    697585.136 3    543572.659 2  20465368.431    20465371.121    20465368.431
      -841.577        -655.747
  -1467632.496 3  -1143608.447 2  24326200.449    24326206.288    24326200.449
      2200.704        1714.856
  -2772487.609 3  -2160378.940 2  23672210.063    23672212.410    23672210.063
      3067.233        2390.061
   4494725.803 3   3502382.186 2  21961112.457    21961115.977    21961112.457
     -2618.506       -2040.401
  17717764.475 3  13780476.169 2  19455232.799    19455234.919    19455232.799
      -280.471        -218.152
   4911327.824 3   3819920.962 2  23426918.246    23426924.032    23426918.246
     -3905.449       -3037.567
   1835599.016 3   1427687.482 2  19566004.783    19566010.570    19566004.783
     -1547.888       -1203.914
  -1958705.709 3                  22186211.420                    22186211.420
     -3777.432
 00  2 17  0 33  0.0000000  0 12G18G25G16G 4G 1G22G24G14R11R 8R 1R10
  -4434579.110 3  -3455515.256 2  20633187.242    20633189.789    20633187.242
      1796.029        1399.507
   5349153.044 3   4168171.265 1  24917761.038    24917762.783    24917761.038
     -3034.555       -2364.566
    155630.677 3    121270.439 2  20192992.892    20192996.183    20192992.892
      -541.426        -421.904
  -2756398.506 3  -2147843.055 2  21063445.605    21063448.009    21063445.605
       796.428         620.606
    723020.227 3    563392.216 2  20470208.626    20470211.459    20470208.626
      -855.372        -666.531
  -1533497.986 3  -1194932.097 2  24313671.933    24313676.684    24313671.933
      2189.163        1705.819
  -2864412.120 3  -2232008.439 2  23654717.374    23654720.178    23654717.374
      3059.712        2384.198
   4573394.371 3   3563682.344 2  21976082.572    21976086.063    21976082.572
     -2627.131       -2047.114
  17726552.452 3  13787311.266 2  19456873.968    19456875.343    19456873.968
      -306.685        -238.539
   5028550.416 3   3911094.085 2  23448794.803    23448798.871    23448794.803
     -3910.614       -3041.570
   1882290.259 3   1464002.859 2  19574735.993    19574741.894    19574735.993
     -1566.102       -1218.059
  -1845225.182 3                  22207381.619                    22207381.619
     -3788.895
 00  2 17  0 33 30.0000000  0 12G18G25G16G 4G 1G22G24G14R11R 8R 1R10
  -4488246.346 3  -3497333.848 2  20622974.387    20622976.906    20622974.387
      1781.463        1388.157
   5440317.452 3   4239208.421 1  24935109.876    24935112.909    24935109.876
     -3043.220       -2371.302
    172089.472 3    134095.466 2  20196124.906    20196128.283    20196124.906
      -555.930        -433.183
  -2780018.199 3  -2166248.001 2  21058950.899    21058953.189    21058950.899
       777.835         606.109
    748903.187 3    583560.761 2  20475133.854    20475136.601    20475133.854
      -870.289        -678.141
  -1598981.942 3  -1245958.540 2  24301209.748    24301212.553    24301209.748
      2176.184        1695.701
  -2956072.308 3  -2303431.923 2  23637276.028    23637279.176    23637276.028
      3050.405        2376.916
   4652342.799 3   3625200.565 2  21991105.912    21991109.003    21991105.912
     -2636.409       -2054.357
  17736154.572 3  13794779.596 2  19458669.265    19458671.557    19458669.265
      -333.765        -259.612
   5145956.138 3   4002409.619 2  23470703.775    23470708.301    23470703.775
     -3916.618       -3046.259
   1929555.629 3   1500764.799 2  19583574.702    19583581.176    19583574.702
     -1585.228       -1232.958
  -1731371.925 3                  22228620.800                    22228620.800
     -3801.221
 00  2 17  0 34  0.0000000  0 12G18G25G16G 4G 1G22G24G14R11R 8R 1R10
  -4541475.481 3  -3538811.082 2  20612845.503    20612848.050    20612845.503
      1767.122        1376.988
   5531721.847 3   4310432.624 1  24952504.054    24952504.540    24952504.054
     -3050.373       -2376.904
    188964.163 3    147244.574 2  20199336.167    20199339.515    20199336.167
      -568.882        -443.286
  -2803087.293 3  -2184223.920 2  21054560.920    21054562.809    21054560.920
       760.261         592.408
    775224.222 3    604070.653 2  20480142.668    20480145.416    20480142.668
      -884.345        -689.084
  -1664080.943 3  -1296684.943 2  24288822.401    24288827.123    24288822.401
      2163.722        1685.993
  -3047444.011 3  -2374630.658 2  23619888.235    23619891.927    23619888.235
      3040.993        2369.655
   4731563.820 3   3686931.198 2  22006180.994    22006183.770    22006180.994
     -2644.951       -2061.009
  17746563.128 3  13802875.143 2  19460614.544    19460616.893    19460614.544
      -360.165        -280.110
   5263535.208 3   4093859.958 2  23492645.938    23492649.318    23492645.938
     -3921.881       -3050.330
   1977388.980 3   1537968.498 2  19592519.803    19592525.933    19592519.803
     -1603.582       -1247.218
  -1617156.075 3                  22249927.427                    22249927.427
     -3812.946
 00  2 17  0 34 30.0000000  0 12G18G25G16G 4G 1G22G24G14R11R 8R 1R10
  -4594260.853 3  -3579942.522 2  20602800.628    20602803.146    20602800.628
      1752.874        1365.886
   5623361.939 3   4381840.457 1  24969942.405    24969944.122    24969942.405
     -3058.158       -2382.984
    206226.420 3    160695.675 2  20202621.092    20202624.126    20202621.092
      -581.247        -452.929
  -2825619.840 3  -2201781.754 2  21050273.332    21050275.479    21050273.332
       742.693         578.745
    801980.493 3    624919.689 2  20485234.404    20485236.951    20485234.404
      -898.606        -700.200
  -1728778.064 3  -1347098.232 2  24276511.591    24276514.739    24276511.591
      2150.219        1675.494
  -3138512.230 3  -2445592.872 2  23602558.999    23602561.232    23602558.999
      3030.981        2361.737
   4811053.638 3   3748871.276 2  22021307.701    22021311.192    22021307.701
     -2653.377       -2067.582
  17757776.049 3  13811596.321 2  19462709.651    19462711.714    19462709.651
      -386.498        -300.615
   5381284.929 3   4185443.028 2  23514620.050    23514623.258    23514620.050
     -3927.204       -3054.484
   2025787.420 3   1575611.706 2  19601570.582    19601576.770    19601570.582
     -1622.056       -1261.592
  -1502580.790 3                  22271300.945                    22271300.945
     -3824.473
 00  2 17  0 35  0.0000000  0 12G18G25G16G 4G 1G22G24G14R11R 8R 1R10
  -4646609.947 3  -3620734.008 2  20592838.870    20592841.446    20592838.870
      1737.962        1354.257
   5715243.711 3   4453436.613 1  24987427.770    24987428.657    24987427.770
     -3066.064       -2389.100
    223876.459 3    174448.948 2  20205979.592    20205982.912    20205979.592
      -594.466        -463.231
  -2847604.303 3  -2218912.508 2  21046089.743    21046092.319    21046089.743
       723.721         563.959
    829173.453 3    646109.016 2  20490408.934    20490411.452    20490408.934
      -913.153        -711.540
  -1793061.504 3  -1397189.197 2  24264279.011    24264282.617    24264279.011
      2136.362        1664.671
  -3229262.913 3  -2516307.677 2  23585288.544    23585292.236    23585288.544
      3020.049        2353.257
   4890802.904 3   3811013.528 2  22036483.055    22036486.947    22036483.055
     -2662.269       -2074.490
  17769789.142 3  13820939.848 2  19464954.981    19464956.929    19464954.981
      -413.284        -321.431
   5499201.467 3   4277155.831 2  23536622.169    23536628.013    23536622.169
     -3932.828       -3058.873
   2074748.285 3   1613692.372 2  19610726.702    19610732.776    19610726.702
     -1640.954       -1276.298
  -1387652.761 3                  22292739.925                    22292739.925
     -3835.535
 00  2 17  0 35 30.0000000  0 12G18G25G16G 4G 1G22G24G14R11R 8R 1R10
  -4698523.149 3  -3661185.833 2  20582960.215    20582962.533    20582960.215
      1723.253        1342.792
   5807338.092 3   4525198.469 1  25004950.945    25004948.512    25004950.945
     -3073.310       -2394.749
    241910.894 3    188501.746 2  20209411.457    20209414.748    20209411.457
      -607.720        -473.556
  -2869011.688 3  -2235593.591 2  21042016.100    21042018.075    21042016.100
       703.633         548.279
    856785.562 3    667624.949 2  20495663.400    20495665.804    20495663.400
      -927.187        -722.507
  -1856941.402 3  -1446965.721 2  24252120.596    24252125.404    24252120.596
      2122.595        1653.961
  -3319690.059 3  -2586770.380 2  23568082.352    23568084.355    23568082.352
      3009.017        2344.713
   4970810.401 3   3873356.988 2  22051708.133    22051711.481    22051708.133
     -2671.321       -2081.563
  17782589.065 3  13830895.348 2  19467347.044    19467349.279    19467347.044
      -439.767        -342.045
   5617270.611 3   4368987.366 2  23558655.809    23558660.336    23558655.809
     -3938.079       -3062.971
   2124258.331 3   1652200.170 2  19619985.595    19619991.668    19619985.595
     -1659.411       -1290.638
  -1272390.601 3                  22314241.649                    22314241.649
     -3847.553
 00  2 17  0 36  0.0000000  0 12G18G25G16G 4G 1G22G24G14R11R 8R 1R10
  -4750027.633 3  -3701319.183 2  20573159.446    20573161.392    20573159.446
      1709.638        1332.154
   5899618.440 3   4597105.266 1  25022510.909    25022513.141    25022510.909
     -3079.799       -2399.854
    260329.350 3    202853.787 2  20212916.556    20212919.675    20212916.556
      -621.066        -483.988
  -2889844.193 3  -2251826.718 2  21038051.570    21038053.888    21038051.570
       684.555         533.389
    884785.153 3    689442.823 2  20500991.414    20500993.790    20500991.414
      -940.196        -732.630
  -1920442.725 3  -1496447.222 1  24240037.329    24240041.422    24240037.329
      2110.005        1644.204
  -3409835.108 3  -2657013.243 2  23550927.659    23550929.519    23550927.659
      2999.967        2337.663
   5051072.693 3   3935899.003 2  22066981.551    22066985.129    22066981.551
     -2680.198       -2088.444
  17796152.489 3  13841444.695 2  19469881.592    19469883.941    19469881.592
      -465.280        -361.876
   5735468.537 3   4460919.056 2  23580715.004    23580717.811    23580715.004
     -3942.449       -3066.346
   2174295.276 3   1691117.775 2  19629342.739    19629348.583    19629342.739
     -1677.147       -1304.436
  -1156818.898 3                  22335801.452                    22335801.452
     -3857.891
 00  2 17  0 36 30.0000000  0 12G18G25G16G 4G 1G22G24G14R11R 8R 1R10
  -4801104.825 3  -3741119.590 2  20563439.432    20563441.807    20563439.432
      1695.445        1321.119
   5992128.147 3   4669190.638 1  25040115.388    25040119.652    25040115.388
     -3087.559       -2405.863
    279184.600 3    217546.177 2  20216504.370    20216507.575    20216504.370
      -636.175        -495.716
  -2910086.931 3  -2267600.286 2  21034199.605    21034201.951    21034199.605
       664.827         518.055
    913189.627 3    711576.181 2  20506396.577    20506399.324    20506396.577
      -953.438        -742.948
  -1983544.776 3  -1545617.579 1  24228027.971    24228033.380    24228027.971
      2096.705        1633.864
  -3499693.669 3  -2727032.899 2  23533827.450    23533830.626    23533827.450
      2990.566        2330.343
   5131614.302 3   3998658.661 2  22082308.144    22082311.378    22082308.144
     -2689.242       -2095.466
  17810501.915 3  13852605.372 2  19472562.855    19472564.975    19472562.855
      -491.485        -382.252
   5853818.025 3   4552968.632 2  23602799.708    23602804.062    23602799.708
     -3947.544       -3070.319
   2224882.546 3   1730463.425 2  19638802.988    19638809.061    19638802.988
     -1695.482       -1318.714
  -1040918.744 3                  22357422.819                    22357422.819
     -3868.748
 00  2 17  0 37  0.0000000  0 12G18G25G16G 4G 1G22G24G14R11R 8R 1R10
  -4851764.322 3  -3780594.509 2  20553799.052    20553801.742    20553799.052
      1681.862        1310.538
   6084863.962 2   4741452.238 1  25057763.444    25057768.280    25057763.444
     -3094.911       -2411.666
    298492.919 3    232591.619 2  20220178.860    20220181.951    20220178.860
      -650.878        -507.171
  -2929739.729 3  -2282914.169 2  21030459.800    21030462.433    21030459.800
       645.390         502.913
    941976.698 3    734007.670 2  20511874.554    20511877.444    20511874.554
      -965.748        -752.512
  -2046257.806 3  -1594484.872 1  24216094.388    24216097.851    24216094.388
      2084.108        1624.007
  -3589281.424 3  -2796841.530 2  23516779.202    23516782.722    23516779.202
      2982.018        2323.632
   5212417.418 3   4061622.128 2  22097684.617    22097688.194    22097684.617
     -2697.668       -2102.040
  17825631.938 3  13864373.187 2  19475390.392    19475392.397    19475390.392
      -517.126        -402.224
   5972311.808 3   4645130.450 2  23624912.220    23624915.486    23624912.220
     -3952.111       -3073.858
   2276014.695 3   1770232.857 2  19648364.494    19648370.510    19648364.494
     -1713.385       -1332.635
   -924698.974 3                  22379103.373                    22379103.373
     -3878.966
 00  2 17  0 37 30.0000000  0 12G18G25G16G 4G 1G22G24G14R11R 8R 1R10
  -4901991.042 3  -3819732.199 2  20544241.291    20544244.009    20544241.291
      1667.183        1299.118
   6177860.101 3   4813916.717 1  25075458.373    25075462.379    25075458.373
     -3104.120       -2418.778
    318261.372 3    247995.605 2  20223940.600    20223943.662    20223940.600
      -666.255        -519.162
  -2948789.052 3  -2297757.805 2  21026834.450    21026837.197    21026834.450
       625.257         487.207
    971166.362 3    756752.880 2  20517429.125    20517431.701    20517429.125
      -979.550        -763.301
  -2108561.983 3  -1643033.517 1  24204240.217    24204246.141    24204240.217
      2070.016        1613.029
  -3678587.588 3  -2866430.714 2  23499786.315    23499788.662    23499786.315
      2972.592        2316.294
   5293498.259 3   4124801.980 2  22113114.033    22113117.095    22113114.033
     -2706.870       -2109.256
  17841562.046 3  13876763.275 2  19478367.312    19478369.661    19478367.312
      -544.137        -423.205
   6090970.460 3   4737420.500 2  23647055.865    23647060.621    23647055.865
     -3957.852       -3078.318
   2327713.680 3   1810443.164 2  19658032.381    19658038.397    19658032.381
     -1732.473       -1347.495
   -808141.111 3                  22400846.337                    22400846.337
     -3890.287
 00  2 17  0 38  0.0000000  0 12G18G25G16G 4G 1G22G24G14R11R 8R 1R10
  -4951788.356 3  -3858535.289 2  20534765.156    20534767.388    20534765.156
      1653.134        1288.152
   6271127.428 3   4886592.494 1  25093209.075    25093211.422    25093209.075
     -3112.877       -2425.658
    338472.625 3    263744.639 2  20227786.719    20227789.810    20227786.719
      -680.459        -530.235
  -2967258.707 3  -2312149.743 2  21023319.918    21023322.436    21023319.918
       606.655         472.702
   1000754.217 3    779808.351 2  20523059.659    20523062.206    20523059.659
      -992.426        -773.312
  -2170464.479 3  -1691269.183 2  24192458.405    24192463.671    24192458.405
      2057.248        1603.064
  -3767631.480 3  -2935815.545 2  23482839.882    23482844.174    23482839.882
      2963.973        2309.556
   5374830.583 3   4188177.793 2  22128591.375    22128594.037    22128591.375
     -2714.566       -2115.252
  17858283.344 3  13889768.740 2  19481491.479    19481493.828    19481491.479
      -570.063        -443.384
   6209784.304 3   4829831.245 2  23669226.836    23669230.273    23669226.836
     -3962.515       -3081.953
   2379970.006 3   1851086.958 2  19667804.784    19667810.571    19667804.784
     -1750.593       -1361.587
   -691257.071 3                  22422650.747                    22422650.747
     -3900.979
 00  2 17  0 38 30.0000000  0 12G18G25G16G 4G 1G22G24G14R11R 8R 1R10
  -5001140.535 3  -3896991.519 2  20525373.925    20525376.300    20525373.925
      1637.705        1276.127
   6364667.170 3   4959480.545 1  25111009.961    25111009.446    25111009.961
     -3122.072       -2432.797
    359123.695 3    279836.381 2  20231716.509    20231719.628    20231716.509
      -695.565        -541.998
  -2985149.196 3  -2326090.393 2  21019915.724    21019918.271    21019915.724
       586.693         457.155
   1030747.336 3    803179.611 2  20528767.133    20528769.823    20528767.133
     -1006.531        -784.299
  -2231947.398 3  -1739177.911 1  24180760.973    24180767.526    24180760.973
      2042.260        1591.451
  -3856377.820 3  -3004968.535 2  23465952.492    23465955.697    23465952.492
      2953.072        2301.091
   5456401.843 3   4251739.786 2  22144113.858    22144116.748    22144113.858
     -2722.962       -2121.776
  17875800.417 3  13903393.141 2  19484765.188    19484767.308    19484765.188
      -597.102        -464.401
   6328757.154 3   4922365.672 2  23691429.931    23691433.426    23691429.931
     -3968.337       -3086.436
   2432789.326 3   1892168.628 2  19677682.285    19677688.416    19677682.285
     -1769.948       -1376.611
   -574045.060 3                  22444515.681                    22444515.681
     -3912.360
 00  2 17  0 39  0.0000000  0 12G18G25G16G 4G 1G22G24G14R11R 8R 1R10
  -5050060.223 3  -3935110.737 2  20516064.708    20516067.255    20516064.708
      1624.644        1265.941
   6458440.703 3   5032550.754 1  25128854.022    25128855.711    25128854.022
     -3128.363       -2437.661
    380185.575 3    296248.244 2  20235724.387    20235727.679    20235724.387
      -707.430        -551.246
  -3002466.743 3  -2339584.586 2  21016620.372    21016622.661    21016620.372
       568.840         443.237
   1061134.401 3    826857.852 2  20534549.548    20534552.267    20534549.548
     -1018.295        -793.455
  -2293015.891 3  -1786763.674 1  24169139.269    24169143.820    24169139.269
      2029.887        1581.771
  -3944830.235 3  -3073892.493 2  23449119.463    23449122.296    23449119.463
      2944.736        2294.629
   5538205.641 3   4315482.985 2  22159680.498    22159683.675    22159680.498
     -2729.557       -2126.942
  17894094.106 3  13917621.581 2  19488184.368    19488186.259    19488184.368
      -621.451        -483.328
   6447869.984 3   5015008.921 2  23713656.248    23713660.889    23713656.248
     -3971.449       -3088.902
   2486152.865 3   1933673.595 2  19687661.439    19687667.684    19687661.439
     -1786.650       -1389.597
   -456524.535 3                  22466438.549                    22466438.549
     -3921.152
 00  2 17  0 39 30.0000000  0 12G18G25G16G 4G 1G22G24G14R11R 8R 1R10
  -5098518.391 3  -3972870.335 2  20506843.666    20506845.727    20506843.666
      1608.502        1253.383
   6552458.030 3   5105810.964 1  25146742.839    25146746.731    25146742.839
     -3136.754       -2444.248
    401667.286 3    312987.239 2  20239812.128    20239815.391    20239812.128
      -722.183        -562.752
  -3019184.153 3  -2352611.139 2  21013439.107    21013441.254    21013439.107
       548.069         427.066
   1091941.293 3    850863.232 2  20540411.909    20540414.341    20540411.909
     -1032.933        -804.890
  -2353646.325 3  -1834008.148 2  24157603.583    24157606.044    24157603.583
      2014.498        1569.766
  -4032966.458 3  -3142570.059 2  23432347.808    23432350.899    23432347.808
      2933.477        2285.839
   5620274.054 3   4379432.374 2  22175297.329    22175300.391    22175297.329
     -2739.128       -2134.396
  17913180.440 3  13932466.518 2  19491750.716    19491753.007    19491750.716
      -648.410        -504.357
   6567138.130 3   5107772.989 2  23735914.592    23735919.519    23735914.592
     -3977.084       -3093.289
   2540077.854 3   1975615.236 2  19697745.669    19697751.799    19697745.669
     -1805.847       -1404.543
   -338683.045 3                  22488422.432                    22488422.432
     -3932.809
 00  2 17  0 40  0.0000000  0 12G18G25G16G 4G 1G22G24G14R11R 8R 1R10
  -5146536.548 3  -4010287.078 2  20497706.301    20497708.391    20497706.301
      1591.672        1240.259
   6646674.643 3   5179226.433 1  25164673.390    25164675.994    25164673.390
     -3145.426       -2450.889
    423551.245 3    330039.660 2  20243976.550    20243979.784    20243976.550
      -737.963        -575.037
  -3035316.125 3  -2365181.501 2  21010369.253    21010371.685    21010369.253
       526.256         410.033
   1123148.946 3    875180.889 2  20546350.530    20546353.163    20546350.530
     -1048.771        -817.235
  -2413850.088 3  -1880920.066 1  24146144.105    24146148.455    24146144.105
      1997.930        1556.840
  -4120795.112 3  -3211007.933 2  23415634.978    23415639.385    23415634.978
      2920.410        2275.609
   5702595.310 3   4443578.765 2  22190962.221    22190965.369    22190962.221
     -2750.104       -2142.956
  17933037.187 3  13947910.656 2  19495461.443    19495463.678    19495461.443
      -676.619        -526.257
   6686540.233 3   5200641.255 2  23758193.753    23758199.081    23758193.753
     -3984.096       -3098.733
   2594543.097 3   2017977.078 2  19707931.279    19707937.008    19707931.279
     -1826.354       -1420.517
   -220544.724 3                  22510459.897                    22510459.897
     -3943.944
 00  2 17  0 40 30.0000000  0 12G18G25G16G 4G 1G22G24G14R11R 8R 1R10
  -5194144.847 3  -4047384.441 2  20488646.525    20488649.015    20488646.525
      1579.756        1230.976
   6741049.848 3   5252765.510 1  25182630.571    25182633.805    25182630.571
     -3148.696       -2453.538
    445817.712 3    347390.148 2  20248213.812    20248217.189    20248213.812
      -748.968        -583.608
  -3050876.681 3  -2377306.612 2  21007408.192    21007410.539    21007408.192
       508.659         396.397
   1154743.487 3    899800.014 2  20552362.692    20552365.354    20552362.692
     -1060.019        -825.997
  -2473631.232 2  -1927502.741 1  24134767.714    24134769.174    24134767.714
      1985.297        1546.969
  -4208319.160 3  -3279208.505 2  23398978.879    23398982.800    23398978.879
      2912.300        2269.369
   5785153.882 3   4507910.090 2  22206672.739    22206675.801    22206672.739
     -2756.401       -2147.841
  17953649.117 3  13963942.164 2  19499312.849    19499314.969    19499312.849
      -700.005        -544.423
   6806059.857 3   5293600.919 2  23780500.554    23780503.533    23780500.554
     -3986.313       -3100.513
   2649534.672 3   2060748.291 2  19718214.966    19718220.982    19718214.966
     -1842.117       -1432.776
  -2650145.354 3                  22532550.312                    22532550.312
     -3952.133
 00  2 17  0 41  0.0000000  0 12G18G25G16G 4G 1G22G24G14R11R 8R 1R10
  -5241305.177 3  -4084132.741 2  20479672.028    20479674.547    20479672.028
      1565.561        1219.909
   6835627.711 3   5326462.496 1  25200628.757    25200632.935    25200628.757
     -3155.287       -2458.653
    468506.526 3    365069.732 2  20252531.345    20252534.607    20252531.345
      -762.424        -594.081
  -3065810.289 3  -2388943.181 2  21004566.773    21004568.747    21004566.773
       488.241         380.460
   1186773.579 3    924758.528 2  20558457.954    20558460.444    20558457.954
     -1074.056        -836.920
  -2532953.428 3  -1973727.803 1  24123478.806    24123480.637    24123478.806
      1970.751        1535.698
  -4295511.396 3  -3347150.499 2  23382387.378    23382390.240    23382387.378
      2901.708        2261.094
   5867999.583 3   4572465.138 2  22222437.552    22222441.301    22222437.552
     -2765.307       -2154.760
  17975059.322 3  13980594.557 2  19503314.449    19503316.339    19503314.449
      -726.058        -564.696
   6925739.978 3   5386685.426 2  23802834.411    23802836.931    23802834.411
     -3991.171       -3104.245
   2705096.020 3   2103962.658 2  19728605.082    19728611.442    19728605.082
     -1860.548       -1447.106
  -2531409.819 3                  22554700.367                    22554700.367
     -3962.189
 00  2 17  0 41 30.0000000  0 12G18G25G16G 4G 1G22G24G14R11R 8R 1R10
  -5288060.142 3  -4120565.164 2  20470774.821    20470777.339    20470774.821
      1551.902        1209.256
   6930390.524 3   5400303.590 1  25218662.208    25218663.782    25218662.208
     -3161.717       -2463.644
    491593.670 3    383059.701 2  20256924.596    20256927.859    20256924.596
      -776.381        -604.945
  -3080152.660 3  -2400119.046 2  21001837.230    21001839.405    21001837.230
       468.394         364.984
   1219215.735 3    950038.132 2  20564631.390    20564633.966    20564631.390
     -1088.278        -848.006
  -2591853.923 3  -2019624.224 1  24112273.727    24112273.928    24112273.727
      1956.431        1524.526
  -4382396.855 3  -3414853.438 2  23365854.517    23365857.866    23365854.517
      2891.159        2252.844
   5951093.481 3   4637213.614 2  22238250.469    22238253.588    22238250.469
     -2773.774       -2161.408
  17997234.644 3  13997842.040 2  19507458.388    19507460.737    19507458.388
      -751.864        -584.791
   7045548.631 3   5479869.921 2  23825190.717    23825193.467    23825190.717
     -3995.518       -3107.640
   2761195.379 3   2147595.496 2  19739096.065    19739102.138    19739096.065
     -1878.891       -1461.369
  -2412391.231 3                  22576902.254                    22576902.254
     -3971.904
 00  2 17  0 42  0.0000000  0 12G18G25G16G 4G 1G22G24G14R11R 8R 1R10
  -5334409.685 3  -4156681.696 2  20461954.958    20461957.247    20461954.958
      1539.160        1199.341
   7025347.808 3   5474296.237 1  25236730.434    25236733.582    25236730.434
     -3167.441       -2468.135
    515098.213 3    401374.925 2  20261397.405    20261400.610    20261397.405
      -789.548        -615.223
  -3093906.588 3  -2410836.397 2  20999219.918    20999222.265    20999219.918
       449.818         350.484
   1252080.355 3    975646.927 2  20570885.201    20570887.806    20570885.201
     -1101.392        -858.215
  -2650325.293 3  -2065186.281 1  24101145.383    24101148.474    24101145.383
      1943.089        1514.088
  -4468969.372 3  -3482312.539 2  23349380.993    23349383.139    23349380.993
      2881.574        2245.365
   6034437.247 3   4702156.772 2  22254110.487    22254112.462    22254110.487
     -2781.143       -2167.110
  18020177.891 3  14015686.796 2  19511745.948    19511747.954    19511745.948
      -776.492        -603.935
   7165489.227 3   5573156.995 2  23847576.347    23847578.352    23847576.347
     -3999.063       -3110.376
   2817836.812 3   2191649.928 2  19749688.392    19749694.179    19749688.392
     -1895.982       -1474.638
  -2293085.991 3                  22599158.664                    22599158.664
     -3980.118
 00  2 17  0 42 30.0000000  0 12G18G25G16G 4G 1G22G24G14R11R 8R 1R10
  -5380316.618 3  -4192453.321 2  20453218.794    20453221.570    20453218.794
      1522.752        1186.555
   7120525.167 3   5548460.332 1  25254841.360    25254846.111    25254841.360
     -3176.224       -2474.965
    539059.561 3    420046.112 2  20265957.008    20265960.385    20265957.008
      -806.171        -628.207
  -3107060.380 3  -2421086.104 2  20996716.838    20996719.070    20996716.838
       428.727         334.091
   1285384.283 3   1001598.055 2  20577222.863    20577225.667    20577222.863
     -1117.250        -870.599
  -2708354.504 3  -2110403.815 1  24090102.665    24090105.127    24090102.665
      1927.136        1501.670
  -4555207.404 3  -3549511.001 2  23332969.055    23332971.344    23332969.055
      2869.284        2235.804
   6118049.431 3   4767309.097 2  22270021.659    22270024.492    22270021.659
     -2791.524       -2175.217
  18043908.198 3  14034143.715 2  19516180.338    19516182.630    19516180.338
      -803.821        -625.204
   7285579.095 3   5666560.224 2  23869984.129    23869987.394    23869984.129
     -4005.105       -3115.050
   2875039.631 3   2236141.005 2  19760385.334    19760391.464    19760385.334
     -1915.789       -1490.080
                                  22621470.213

 00  2 17  0 43  0.0000000  0 12G18G25G16G 4G 1G22G24G14R11R 8R 1R10
  -5425780.202 3  -4227879.479 2  20444567.298    20444570.131    20444567.298
      1508.001        1175.071
   7215922.605 3   5622795.942 1  25272997.564    25273001.456    25272997.564
     -3183.648       -2480.781
    563465.906 3    439064.035 2  20270601.517    20270604.722    20270601.517
      -821.255        -639.943
  -3119642.183 3  -2430890.103 2  20994322.717    20994325.207    20994322.717
       409.898         319.387
   1319111.053 3   1027878.654 2  20583640.973    20583643.778    20583640.973
     -1131.265        -881.488
  -2765952.964 3  -2155285.698 2  24079141.595    24079143.484    24079141.595
      1912.366        1490.194
  -4641128.755 3  -3616462.689 2  23316618.518    23316623.240    23316618.518
      2858.411        2227.334
   6201926.863 3   4832668.114 2  22285982.200    22285985.233    22285982.200
     -2800.401       -2182.112
  18068405.679 3  14053197.313 2  19520758.315    19520760.550    19520758.315
      -829.432        -645.129
   7405797.279 3   5760063.244 2  23892418.235    23892422.819    23892418.235
     -4009.556       -3118.557
   2932783.816 3   2281053.140 2  19771184.360    19771190.261    19771184.360
     -1933.974       -1504.194
  -2053595.293 3                  22643835.350                    22643835.350
     -4000.924
 00  2 17  0 43 30.0000000  0 12G18G25G16G 4G 1G22G24G14R11R 8R 1R10
  -5470807.137 3  -4262965.382 2  20435999.184    20436001.989    20435999.184
      1492.976        1163.338
   7311523.279 3   5697289.879 1  25291191.766    25291192.282    25291191.766
     -3190.372       -2486.019
    588318.554 3    458429.726 2  20275330.806    20275333.954    20275330.806
      -836.284        -651.667
  -3131673.738 3  -2440265.333 2  20992032.877    20992035.252    20992032.877
       391.244         304.875
   1353239.560 3   1054472.297 2  20590135.268    20590137.873    20590135.268
     -1144.647        -891.944
  -2823119.894 3  -2199831.296 2  24068263.405    24068267.383    24068263.405
      1897.914        1478.896
  -4726725.594 3  -3683161.497 2  23300330.286    23300333.921    23300330.286
      2847.408        2218.701
   6286058.283 3   4898225.053 2  22301991.872    22301995.334    22301991.872
     -2809.025       -2188.841
  18093660.753 3  14072840.153 2  19525477.625    19525479.802    19525477.625
      -855.006        -664.999
   7526136.882 3   5853660.662 2  23914876.203    23914880.557    23914876.203
     -4013.832       -3121.857
   2991062.905 3   2326381.305 2  19782082.397    19782088.183    19782082.397
     -1952.066       -1518.242
                                  22666248.303

 00  2 17  0 44  0.0000000  0 12G18G25G16G 4G 1G22G24G14R11R 8R 1R10
  -5515392.203 3  -4297706.978 2  20427514.936    20427517.454    20427514.936
      1477.986        1151.693
   7407307.837 3   5771927.116 1  25309419.674    25309420.532    25309419.674
     -3196.572       -2490.846
    613604.920 3    478133.384 2  20280142.514    20280145.805    20280142.514
      -850.697        -662.894
  -3143151.929 3  -2449209.380 2  20989848.447    20989851.138    20989848.447
       372.605         290.310
   1387746.725 3   1081360.996 2  20596701.633    20596704.266    20596701.633
     -1157.186        -901.690
  -2879853.264 3  -2244039.045 2  24057467.578    24057471.041    24057467.578
      1883.048        1467.300
  -4812001.065 3  -3749609.898 2  23284102.711    23284106.661    23284102.711
      2836.223        2210.027
   6370431.964 3   4963970.758 2  22318047.689    22318051.295    22318047.689
     -2817.377       -2195.366
  18119670.862 3  14093070.258 2  19530338.481    19530340.715    19530338.481
      -880.471        -684.822
   7646593.743 3   5947349.324 2  23937354.497    23937358.393    23937354.497
     -4018.040       -3125.098
   3049874.342 3   2372123.521 2  19793080.465    19793086.424    19793080.465
     -1970.177       -1532.369
  -2846839.258 3                  22688712.196                    22688712.196
     -4019.099
 00  2 17  0 44 30.0000000  0 12G18G25G16G 4G 1G22G24G14R11R 8R 1R10
  -5559502.303 3  -4332078.478 2  20419120.943    20419123.547    20419120.943
      1463.245        1140.179
   7503316.968 3   5846739.316 1  25327688.217    25327690.965    25327688.217
     -3203.558       -2496.232
    639343.759 3    498189.614 2  20285040.666    20285043.814    20285040.666
      -864.508        -673.649
  -3154039.165 3  -2457692.937 2  20987776.505    20987778.995    20987776.505
       353.563         275.472
   1422657.822 3   1108564.451 2  20603344.921    20603347.382    20603344.921
     -1169.670        -911.436
  -2936113.863 3  -2287878.446 2  24046761.680    24046764.627    24046761.680
      1868.072        1455.598
  -4896911.048 3  -3815773.527 2  23267946.119    23267949.123    23267946.119
      2824.966        2201.291
   6455091.301 3   5029939.038 2  22334157.271    22334161.678    22334157.271
     -2826.023       -2202.100
  18146475.717 3  14113918.476 2  19535347.790    19535349.738    19535347.790
      -905.974        -704.624
   7767208.163 3   6041160.560 2  23959861.960    23959865.341    23959861.960
     -4022.342       -3128.470
   3109259.546 3   2418312.000 2  19804185.909    19804191.466    19804185.909
     -1988.314       -1546.470
  -2726119.900 3                  22711231.733                    22711231.733
     -4028.351
 00  2 17  0 45  0.0000000  0 12G18G25G16G 4G 1G22G24G14R11R 8R 1R10
  -5603173.087 3  -4366107.646 2  20410810.785    20410813.532    20410810.785
      1448.429        1128.642
   7599537.176 3   5921716.058 1  25345997.081    25346005.094    25345997.081
     -3210.772       -2501.923
    665493.110 3    518565.731 2  20290016.584    20290019.875    20290016.584
      -878.600        -684.641
  -3164333.624 3  -2465714.604 2  20985817.998    20985820.430    20985817.998
       332.998         259.476
   1457943.467 3   1136059.765 2  20610059.691    20610062.410    20610059.691
     -1182.337        -921.307
  -2991914.804 3  -2331359.656 2  24036143.258    24036145.118    24036143.258
      1852.416        1443.459
  -4981480.191 3  -3881671.549 2  23251851.540    23251854.287    23251851.540
      2813.210        2192.096
   6540014.273 3   5096112.751 2  22350318.148    22350322.012    22350318.148
     -2835.107       -2209.149
  18174053.530 3  14135367.895 2  19540501.029    19540503.435    19540501.029
      -932.156        -725.025
   7887958.398 3   6135077.342 2  23982397.518    23982398.664    23982397.518
     -4027.365       -3132.384
   3169196.492 3   2464929.603 2  19815394.162    19815400.235    19815394.162
     -2007.133       -1561.111
                                  22733804.674

 00  2 17  0 45 30.0000000  0 11G18G16G 4G 1G22G24G14R11R 8R 1R10
  -5646428.635 3  -4399813.214 2  20402579.362    20402582.195    20402579.362
      1433.518        1117.030
    692029.760 3    539243.641 2  20295066.472    20295069.820    20295066.472
      -892.163        -695.189
  -3174043.546 3  -2473280.780 2  20983970.315    20983972.747    20983970.315
       312.560         243.562
   1493568.763 3   1163819.738 2  20616839.038    20616841.613    20616839.038
     -1194.568        -930.858
  -3047295.756 3  -2374513.585 2  24025604.328    24025605.759    24025604.328
      1837.768        1432.026
  -5065739.343 3  -3947328.007 2  23235817.753    23235821.588    23235817.753
      2802.462        2183.748
   6625165.580 3   5162464.389 2  22366521.804    22366524.924    22366521.804
     -2843.360       -2215.635
  18202375.539 3  14157396.130 2  19545793.412    19545795.474    19545793.412
      -957.626        -744.813
   8008816.008 3   6229077.690 2  24004948.451    24004952.576    24004948.451
     -4031.451       -3135.559
   3229659.329 3   2511956.242 2  19826701.257    19826707.216    19826701.257
     -2025.324       -1575.271
  -2916993.090 3                  22756421.057                    22756421.057
     -4046.643
 00  2 17  0 46  0.0000000  0 11G18G16G 4G 1G22G24G14R11R 8R 1R10
  -5689225.071 3  -4433161.068 2  20394435.454    20394438.001    20394435.454
      1419.654        1106.214
    718977.768 3    560242.083 2  20300194.344    20300197.864    20300194.344
      -904.355        -704.696
  -3183134.482 3  -2480364.629 2  20982240.294    20982242.670    20982240.294
       293.631         228.795
   1529578.881 3   1191879.568 2  20623691.324    20623694.157    20623691.324
     -1206.236        -939.914
  -3102215.111 3  -2417307.842 2  24015151.736    24015154.570    24015151.736
      1823.691        1421.019
  -5149672.978 3  -4012730.831 2  23219846.073    23219847.962    23219846.073
      2793.070        2176.426
   6710575.846 3   5229017.818 2  22382774.929    22382779.022    22382774.929
     -2850.809       -2221.390
  18231471.129 3  14180026.032 2  19551231.136    19551233.428    19551231.136
      -981.956        -763.725
   8129810.701 3   6323184.654 2  24027528.583    24027532.479    24027528.583
     -4034.630       -3138.050
   3290676.593 3   2559414.091 2  19838111.699    19838117.944    19838111.699
     -2042.427       -1588.547
  -2795475.927 3                  22779088.663                    22779088.663
     -4054.995
 00  2 17  0 46 30.0000000  0 11G18G16G 4G 1G22G24G14R11R 8R 1R10
  -5731589.354 3  -4466172.170 2  20386373.841    20386376.416    20386373.841
      1403.539        1093.665
    746311.219 3    581540.869 2  20305395.632    20305399.066    20305395.632
      -918.919        -716.030
  -3191634.860 3  -2486988.309 2  20980622.570    20980624.888    20980622.570
       272.049         211.998
   1565964.089 3   1220231.687 2  20630615.292    20630617.867    20630615.292
     -1220.510        -951.035
  -3156701.385 3  -2459764.655 1  24004782.748    24004789.158    24004782.748
      1807.707        1408.636
  -5233303.465 3  -4077897.439 2  23203931.798    23203934.431    23203931.798
      2781.277        2167.251
   6796222.535 3   5295755.477 2  22399073.296    22399077.303    22399073.296
     -2859.868       -2228.453
  18261307.780 3  14203232.324 2  19556806.797    19556808.974    19556806.797
     -1008.096        -784.076
   8250909.452 3   6417372.557 2  24050125.150    24050129.962    24050125.150
     -4039.529       -3141.864
   3352218.162 3   2607279.726 2  19849619.870    19849626.630    19849619.870
     -2061.324       -1603.247
  -2973566.292 3                  22801802.934                    22801802.934
     -4063.837
 00  2 17  0 47  0.0000000  0 11G18G16G 4G 1G22G24G14R11R 8R 1R10
  -5773447.120 3  -4498788.591 2  20378408.581    20378411.042    20378408.581
      1387.448        1081.128
    774100.172 3    603194.597 2  20310683.741    20310686.917    20310683.741
      -933.213        -727.192
  -3199476.935 3  -2493099.008 2  20979130.507    20979132.739    20979130.507
       251.500         195.983
   1602794.943 3   1248931.067 2  20637623.836    20637626.326    20637623.836
     -1234.366        -961.867
  -3210687.202 3  -2501831.454 2  23994512.595    23994515.771    23994512.595
      1791.920        1396.307
  -5316567.875 3  -4142778.782 2  23188086.161    23188089.853    23188086.161
      2769.889        2158.345
   6882145.863 3   5362708.703 2  22415423.731    22415427.051    22415423.731
     -2867.904       -2234.736
  18291943.526 3  14227060.130 2  19562531.849    19562534.542    19562531.849
     -1033.775        -804.032
   8372171.467 3   6511687.410 2  24072754.708    24072760.666    24072754.708
     -4043.919       -3145.289
   3414342.969 3   2655599.004 2  19861237.940    19861244.242    19861237.940
     -2079.652       -1617.517
                                  22824571.354

 00  2 17  0 47 30.0000000  0 11G18G16G 4G 1G22G24G14R11R 8R 1R10
  -5814873.836 3  -4531069.148 2  20370525.587    20370527.791    20370525.587
      1372.710        1069.651
    802262.825 3    625139.520 2  20316042.950    20316046.041    20316042.950
      -946.016        -737.156
  -3206772.944 3  -2498784.207 2  20977742.186    20977744.533    20977742.186
       232.992         181.575
   1639990.610 3   1277914.701 2  20644702.137    20644704.884    20644702.137
     -1247.193        -971.830
  -3264242.943 3  -2543563.184 2  23984321.682    23984325.603    23984321.682
      1776.681        1384.423
  -5399525.474 3  -4207421.040 2  23172300.804    23172303.466    23172300.804
      2758.762        2149.659
   6968254.168 3   5429806.042 2  22431809.559    22431812.536    22431809.559
     -2874.536       -2239.903
  18323291.446 3  14251441.857 2  19568389.574    19568391.751    19568389.574
     -1057.936        -822.846
   8493510.076 3   6606061.844 2  24095398.200    24095403.356    24095398.200
     -4047.008       -3147.703
   3476964.260 3   2704304.442 2  19872948.228    19872954.416    19872948.228
     -2096.819       -1630.853
  -2729247.837 3                  22847379.572                    22847379.572
     -4080.089
 00  2 17  0 48  0.0000000  0 11G18G16G 4G 1G22G24G14R11R 8R 1R10
  -5855834.323 3  -4562986.431 2  20362730.756    20362733.217    20362730.756
      1358.242        1058.357
    830845.832 3    647411.993 2  20321482.105    20321485.510    20321482.105
      -959.301        -747.508
  -3213471.679 3  -2504003.998 2  20976467.607    20976469.897    20976467.607
       213.696         166.531
   1677605.226 3   1307224.795 2  20651860.016    20651862.649    20651860.016
     -1260.093        -981.905
  -3317290.618 3  -2584898.980 2  23974226.555    23974230.933    23974226.555
      1760.455        1371.727
  -5482098.181 3  -4271763.391 2  23156587.877    23156591.340    23156587.877
      2746.184        2139.867
   7054606.129 3   5497093.249 2  22448241.946    22448244.922    22448241.946
     -2882.123       -2245.831
  18355405.914 3  14276419.779 2  19574391.114    19574393.405    19574391.114
     -1082.764        -842.162
   8614979.283 3   6700537.901 2  24118066.327    24118071.712    24118066.327
     -4050.593       -3150.484
   3540138.438 3   2753439.905 2  19884762.224    19884768.239    19884762.224
     -2114.415       -1644.556
  -2606724.346 3                  22870235.877                    22870235.877
     -4088.242
 00  2 17  0 48 30.0000000  0 10G18G16G 4G 1G22G24G14R11R 1R10
  -5896330.583 3  -4594541.975 2  20355024.688    20355027.350    20355024.688
      1344.018        1047.298
    859854.688 3    670016.288 2  20327002.475    20327005.451    20327002.475
      -972.055        -757.443
  -3219551.970 3  -2508741.891 2  20975310.428    20975312.803    20975310.428
       194.326         151.438
   1715627.910 3   1336852.861 2  20659095.373    20659098.292    20659095.373
     -1272.016        -991.203
  -3369834.851 3  -2625842.513 2  23964224.272    23964227.964    23964224.272
      1745.107        1359.834
  -5564260.887 3  -4335786.282 2  23140952.374    23140955.551    23140952.374
      2734.084        2130.461
   7141210.998 3   5564577.529 2  22464722.535    22464725.454    22464722.535
     -2888.770       -2250.985
  18388291.260 3  14301997.274 2  19580536.438    19580538.328    19580536.438
     -1106.967        -860.960
   3603870.247 3   2803009.062 2  19896679.803    19896685.991    19896679.803
     -2131.719       -1658.022
  -2483936.734 3                  22893142.705                    22893142.705
     -4095.211
 00  2 17  0 49  0.0000000  0 10G18G16G 4G 1G22G24G14R11R 1R10
  -5936412.710 3  -4625774.790 2  20347397.359    20347399.763    20347397.359
      1329.020        1035.613
    889234.184 3    692909.404 2  20332593.039    20332596.101    20332593.039
      -985.759        -768.109
  -3225079.913 3  -2513049.377 2  20974258.247    20974260.794    20974258.247
       174.967         136.326
   1753984.375 3   1366741.013 2  20666394.118    20666397.094    20666394.118
     -1284.310       -1000.746
  -3421927.650 3  -2666434.249 2  23954314.408    23954314.923    23954314.408
      1728.801        1347.141
  -5646080.295 3  -4399541.653 2  23125383.428    23125386.032    23125383.428
      2721.441        2120.575
   7228004.807 3   5632209.030 2  22481238.351    22481242.586    22481238.351
     -2896.760       -2257.220
  18421886.542 3  14328126.947 2  19586814.743    19586816.691    19586814.743
     -1131.879        -880.375
   3668100.804 3   2852966.137 2  19908692.025    19908697.927    19908692.025
     -2149.487       -1671.830
                                  22916084.974

 00  2 17  0 49 30.0000000  0 10G18G16G 4G 1G22G24G14R11R 1R10
  -5976061.948 3  -4656670.283 2  20339852.439    20339854.928    20339852.439
      1313.543        1023.524
    919016.924 3    716116.722 2  20338260.579    20338264.013    20338260.579
     -1000.540        -779.650
  -3230020.404 3  -2516899.116 2  20973318.246    20973320.421    20973318.246
       153.572         119.669
   1792710.820 3   1396917.468 2  20673763.769    20673766.631    20673763.769
     -1298.130       -1011.515
  -3473550.835 3  -2706660.076 1  23944488.620    23944493.485    23944488.620
      1712.115        1334.066
  -5727527.824 3  -4463007.240 2  23109883.617    23109887.710    23109883.617
      2708.076        2110.167
   7315036.678 3   5700026.053 2  22497800.039    22497804.161    22497800.039
     -2906.147       -2264.515
  18456221.118 3  14354831.625 2  19593230.618    19593233.196    19593230.618
     -1157.751        -900.499
   3732859.061 3   2903333.641 2  19920802.395    19920808.525    19920802.395
     -2168.410       -1686.533
                                  22939069.960

 00  2 17  0 50  0.0000000  0 10G18G16G 4G 1G22G24G14R11R 1R10
  -6015297.339 3  -4687243.315 2  20332386.225    20332388.543    20332386.225
      1299.714        1012.774
    949191.898 3    739629.681 2  20344002.795    20344005.857    20344002.795
     -1013.449        -789.669
  -3234366.877 3  -2520285.996 2  20972491.082    20972493.171    20972491.082
       133.887         104.340
   1831792.523 3   1427370.743 2  20681200.737    20681203.456    20681200.737
     -1309.637       -1020.492
  -3524745.194 3  -2746551.760 1  23934749.419    23934751.022    23934749.419
      1698.321        1323.404
  -5808652.531 3  -4526221.308 2  23094446.755    23094449.817    23094446.755
      2697.924        2102.293
   7402292.059 3   5768017.218 2  22514403.747    22514408.183    22514403.747
     -2913.192       -2269.985
  18491268.721 3  14382090.871 2  19599780.282    19599783.032    19599780.282
     -1181.185        -918.695
   3798121.669 3   2954093.428 2  19933006.721    19933012.909    19933006.721
     -2184.922       -1699.370
  -2114319.555 3                  22962092.288                    22962092.288
     -4118.239
 00  2 17  0 50 30.0000000  0 10G18G16G 4G 1G22G24G14R11R 1R10
  -6054071.636 3  -4717457.050 2  20325007.583    20325009.873    20325007.583
      1285.234        1001.503
    979792.250 3    763474.095 2  20349825.734    20349828.882    20349825.734
     -1026.830        -800.105
  -3238084.789 3  -2523183.082 2  20971783.593    20971785.911    20971783.593
       114.142          88.962
   1871262.766 3   1458126.789 2  20688711.618    20688714.394    20688711.618
     -1321.824       -1030.002
  -3575485.472 3  -2786089.607 1  23925090.607    23925095.386    23925090.607
      1684.081        1312.280
  -5889438.975 3  -4589171.787 2  23079073.896    23079077.273    23079073.896
      2687.646        2094.254
   7489793.803 3   5836200.383 2  22531055.739    22531058.858    22531055.739
     -2920.120       -2275.425
  18527062.207 3  14409930.257 2  19606469.046    19606471.681    19606469.046
     -1205.121        -937.295
   3863922.284 3   3005271.684 2  19945311.818    19945318.178    19945311.818
     -2201.877       -1712.571
  -1990671.046 3                  22985158.230                    22985158.230
     -4125.115
 00  2 17  0 51  0.0000000  0 11G27G18G16G 4G 1G22G24G14R11R 1R10
                                  25434791.836

  -6092443.904 3  -4747357.509 2  20317705.692    20317708.211    20317705.692
      1270.700         990.168
   1010780.216 3    787620.560 2  20355722.649    20355725.969    20355722.649
     -1041.447        -811.522
  -3241246.595 3  -2525646.845 2  20971182.152    20971184.156    20971182.152
        94.191          73.393
   1911076.545 3   1489150.509 2  20696288.061    20696290.837    20696288.061
     -1334.901       -1040.174
  -3625817.164 3  -2825309.035 2  23915514.394    23915517.942    23915514.394
      1668.972        1300.519
  -5969931.276 3  -4651893.056 2  23063757.200    23063760.119    23063757.200
      2676.045        2085.243
   7577484.645 3   5904530.877 2  22547742.160    22547745.423    22547742.160
     -2928.261       -2281.756
  18563544.594 3  14438305.465 2  19613286.623    19613288.685    19613286.623
     -1229.579        -956.337
   3930205.306 3   3056825.143 2  19957707.438    19957712.823    19957707.438
     -2219.415       -1726.214
  -3159967.451 3                  23008257.143                    23008257.143
     -4132.316
 00  2 17  0 51 30.0000000  0 11G27G18G16G 4G 1G22G24G14R11R 1R10
         0.353 3         0.971 1  25414185.158    25414190.338    25414185.158
      3610.156        2813.122
  -6130296.257 3  -4776852.854 2  20310502.536    20310505.169    20310502.536
      1255.503         978.310
   1042293.581 3    812176.418 2  20361719.480    20361722.514    20361719.480
     -1056.765        -823.443
  -3243712.027 3  -2527567.972 2  20970712.933    20970715.051    20970712.933
        72.951          56.841
   1951376.136 3   1520552.775 2  20703956.910    20703959.285    20703956.910
     -1348.819       -1051.036
  -3675604.352 3  -2864104.184 2  23906039.722    23906041.897    23906039.722
      1652.671        1287.742
  -6049981.883 3  -4714270.145 2  23048523.517    23048527.523    23048523.517
      2663.335        2075.311
   7665498.567 3   5973113.135 2  22564491.937    22564495.028    22564491.937
     -2936.543       -2288.213
  18600852.701 3  14467322.888 2  19620258.943    19620261.120    19620258.943
     -1254.870        -976.043
   3997108.225 3   3108860.723 2  19970218.254    19970224.328    19970218.254
     -2237.971       -1740.662
  -3035835.773 3                  23031414.009                    23031414.009
     -4140.393
 00  2 17  0 52  0.0000000  0 11G27G18G16G 4G 1G22G24G14R11R 1R10
   -108304.828 3    -84392.668 1  25393575.874    25393583.773    25393575.874
      3611.147        2813.888
  -6167728.554 3  -4806020.889 2  20303379.435    20303381.839    20303379.435
      1241.245         967.206
   1074228.709 3    837060.930 2  20367796.479    20367799.541    20367796.479
     -1070.897        -834.460
  -3245592.626 3  -2529033.386 2  20970355.016    20970357.392    20970355.016
        53.725          41.860
   1992034.855 3   1552234.903 2  20711694.058    20711696.576    20711694.058
     -1360.695       -1060.269
  -3724927.816 3  -2902537.994 2  23896654.292    23896658.671    23896654.292
      1636.535        1275.191
  -6129682.760 3  -4776374.705 2  23033357.001    23033359.376    23033357.001
      2651.315        2065.936
   7753709.342 3   6041848.767 2  22581276.692    22581280.928    22581276.692
     -2942.931       -2293.171
  18638879.961 3  14496899.631 2  19627365.098    19627367.275    19627365.098
     -1279.036        -994.779
   4064524.698 3   3161295.728 2  19982825.538    19982831.210    19982825.538
     -2255.254       -1754.062
  -2911502.408 3                  23054608.142                    23054608.142
     -4147.253
 00  2 17  0 52 30.0000000  0 11G27G18G16G 4G 1G22G24G14R11R 1R10
   -216632.444 2   -168803.812 1  25372961.698    25372959.437    25372961.698
      3611.830        2814.417
  -6204736.675 3  -4834858.395 2  20296337.036    20296339.411    20296337.036
      1226.989         956.087
   1106587.822 3    862275.815 2  20373954.252    20373957.228    20373954.252
     -1085.330        -845.716
  -3246908.874 3  -2530059.040 2  20970104.704    20970107.136    20970104.704
        35.193          27.426
   2033054.307 3   1584198.110 2  20719499.768    20719502.143    20719499.768
     -1372.916       -1069.811
  -3773766.105 3  -2940593.743 2  23887360.334    23887364.255    23887360.334
      1620.202        1262.482
  -6209016.960 3  -4838193.561 2  23018259.740    23018262.831    23018259.740
      2638.806        2056.227
   7842113.346 3   6110734.992 2  22598100.181    22598102.957    22598100.181
     -2949.560       -2298.372
  18677626.671 3  14527035.982 2  19634605.674    19634607.966    19634605.674
     -1302.996       -1013.455
   4132458.151 3   3214132.841 2  19995529.421    19995534.978    19995529.421
     -2272.418       -1767.430
  -3192983.444 3                  23077840.813                    23077840.813
     -4153.829
 00  2 17  0 53  0.0000000  0 11G27G18G16G 4G 1G22G24G14R11R 1R10
   -324959.515 3   -253214.441 1  25352346.599    25352350.548    25352346.599
      3611.883        2814.467
  -6241294.201 3  -4863344.827 2  20289380.428    20289383.061    20289380.428
      1212.090         944.490
   1139396.050 3    887840.657 2  20380197.550    20380200.698    20380197.550
     -1099.769        -856.939
  -3247655.523 3  -2530640.840 2  20969962.718    20969964.836    20969962.718
        16.345          12.761
   2074459.391 3   1616461.810 2  20727379.031    20727381.292    20727379.031
     -1385.486       -1079.603
  -3822093.173 3  -2978251.160 2  23878164.733    23878166.421    23878164.733
      1603.385        1249.358
  -6287958.655 3  -4899706.557 2  23003237.125    23003238.985    23003237.125
      2626.134        2046.314
   7930737.801 3   6179792.980 2  22614964.108    22614967.256    22614964.108
     -2956.930       -2304.113
  18717105.816 3  14557741.990 2  19641983.471    19641985.877    19641983.471
     -1326.909       -1032.036
   4200921.496 3   3267382.076 2  20008332.352    20008338.310    20008332.352
     -2289.790       -1780.954
  -3245343.909 3                  23101111.288                    23101111.288
     -4160.501
 00  2 17  0 53 30.0000000  0 11G27G18G16G 4G 1G22G24G14R11R 1R10
   -433280.142 3   -337620.113 1  25331737.526    25331743.536    25331737.526
      3611.192        2813.849
  -6277380.654 3  -4891464.135 2  20282513.284    20282515.574    20282513.284
      1195.255         931.367
   1172642.762 3    913747.181 2  20386524.015    20386527.307    20386524.015
     -1115.109        -868.933
  -3247812.663 3  -2530763.283 2  20969932.525    20969934.958    20969932.525
        -4.308          -3.361
   2116260.816 3   1649034.338 2  20735333.430    20735335.863    20735333.430
     -1399.566       -1090.577
  -3869894.429 3  -3015498.818 2  23869068.258    23869071.377    23869068.258
      1585.002        1235.031
  -6366504.849 3  -4960911.390 2  22988291.642    22988294.246    22988291.642
      2611.921        2035.256
   8019602.247 3   6249037.984 2  22631874.846    22631879.110    22631874.846
     -2965.895       -2311.076
  18757323.997 3  14589022.800 2  19649499.025    19649501.317    19649499.025
     -1352.571       -1052.005
   4269924.217 3   3321050.833 2  20021236.000    20021242.588    20021236.000
     -2308.692       -1795.663
  -3120379.554 3                  23124422.693                    23124422.693
     -4168.763
 00  2 17  0 54  0.0000000  0 11G27G18G16G 4G 1G22G24G14R11R 1R10
   -541622.787 3   -422042.893 1  25311119.768    25311123.603    25311119.768
      3611.732        2814.297
  -6313007.326 3  -4919225.149 2  20275733.693    20275736.326    20275733.693
      1179.954         919.440
   1206303.360 3    939976.215 2  20392929.314    20392932.863    20392929.314
     -1128.728        -879.529
  -3247406.112 3  -2530446.489 2  20970009.645    20970012.307    20970009.645
       -22.852         -17.823
   2158431.717 3   1681894.779 2  20743358.067    20743360.786    20743358.067
     -1412.041       -1100.303
  -3917194.008 3  -3052355.594 2  23860068.196    23860070.486    23860068.196
      1568.323        1222.049
  -6444679.454 3  -5021826.662 2  22973415.269    22973417.358    22973415.269
      2599.839        2025.838
   8108704.585 3   6318468.363 2  22648830.527    22648834.734    22648830.527
     -2974.231       -2317.558
  18798258.499 3  14620860.742 2  19657148.214    19657150.678    19657148.214
     -1376.264       -1070.422
   4339442.768 3   3375120.799 2  20034236.184    20034242.715    20034236.184
     -2325.867       -1809.004
  -2995223.443 3                  23147769.602                    23147769.602
     -4174.967
 00  2 17  0 54 30.0000000  0 11G27G18G16G 4G 1G22G24G14R11R 1R10
   -649984.683 3   -506480.687 1  25290500.354    25290503.988    25290500.354
      3611.692        2814.302
  -6348181.731 3  -4946633.752 2  20269040.103    20269042.679    20269040.103
      1164.267         907.250
   1240360.033 3    966513.878 2  20399410.138    20399413.344    20399410.138
     -1142.556        -890.323
  -3246438.000 3  -2529692.118 2  20970194.137    20970196.598    20970194.137
       -42.524         -33.123
   2200985.767 3   1715053.771 2  20751455.894    20751458.384    20751455.894
     -1425.541       -1110.789
  -3964002.102 3  -3088829.410 2  23851160.583    23851162.930    23851160.583
      1551.533        1209.046
  -6522485.911 3  -5082455.065 2  22958608.372    22958611.634    22958608.372
      2586.463        2015.391
   8198064.106 3   6388099.121 2  22665835.503    22665838.737    22665835.503
     -2983.807       -2325.037
  18839903.357 3  14653251.199 2  19664931.013    19664933.362    19664931.013
     -1400.766       -1089.495
   4409474.679 3   3429590.030 2  20047332.759    20047339.347    20047332.759
     -2343.777       -1822.924
  -2869881.284 3                  23171151.001                    23171151.001
     -4181.617
 00  2 17  0 55  0.0000000  0 11G27G18G16G 4G 1G22G24G14R11R 1R10
   -758344.345 3   -590916.743 1  25269875.883    25269882.751    25269875.883
      3611.738        2814.339
  -6382893.731 3  -4973682.055 2  20262434.730    20262437.248    20262434.730
      1149.400         895.663
   1274823.714 3    993368.685 2  20405968.052    20405971.429    20405968.052
     -1155.621        -900.477
  -3244878.516 3  -2528476.947 2  20970490.565    20970493.283    20970490.565
       -62.321         -48.542
   2243926.600 3   1748514.166 2  20759627.241    20759629.931    20759627.241
     -1437.746       -1120.329
  -4010313.121 3  -3124915.874 2  23842347.343    23842349.489    23842347.343
      1535.266        1196.319
  -6599896.150 3  -5142774.730 2  22943878.225    22943880.629    22943878.225
      2573.496        2005.316
   8287703.024 3   6457947.601 2  22682892.745    22682896.809    22682892.745
     -2992.687       -2331.975
  18882277.709 3  14686209.034 2  19672849.315    19672852.065    19672849.315
     -1424.821       -1108.195
   4480038.255 3   3484472.794 2  20060528.267    20060534.454    20060528.267
     -2361.202       -1836.512
  -2744335.791 3                  23194571.981                    23194571.981
     -4188.930
 00  2 17  0 55 30.0000000  0 11G27G18G16G 4G 1G22G24G14R11R 1R10
   -866722.966 3   -675367.537 1  25249253.930    25249257.307    25249253.930
      3612.493        2814.890
  -6417185.308 3  -5000402.722 2  20255909.182    20255912.101    20255909.182
      1135.602         884.886
   1309666.250 3   1020518.690 2  20412598.614    20412601.991    20412598.614
     -1168.390        -910.416
  -3242725.574 3  -2526799.325 2  20970900.526    20970903.245    20970900.526
       -82.272         -64.129
   2287214.686 3   1782245.154 2  20767864.721    20767867.611    20767864.721
     -1449.098       -1129.168
  -4056148.316 3  -3160631.573 2  23833626.313    23833630.177    23833626.313
      1519.352        1183.936
  -6676925.994 3  -5202797.967 2  22929219.770    22929222.717    22929219.770
      2560.824        1995.458
   8377588.295 3   6527988.053 2  22699997.234    22700000.782    22699997.234
     -3000.632       -2338.177
  18925360.339 3  14719717.750 2  19680900.496    19680902.960    19680900.496
     -1448.394       -1126.493
   4551114.487 3   3539754.278 2  20073820.299    20073826.372    20073820.299
     -2378.231       -1849.701
  -3424495.494 3                  23218027.125                    23218027.125
     -4193.893
 00  2 17  0 56  0.0000000  0 11G27G18G16G 4G 1G22G24G14R11R 1R10
   -975118.162 3   -759831.258 1  25228624.466    25228628.301    25228624.466
      3613.951        2816.059
  -6451052.807 3  -5026792.959 2  20249464.438    20249467.013    20249464.438
      1122.278         874.516
   1344901.186 3   1047974.474 2  20419303.787    20419306.963    20419303.787
     -1180.464        -919.836
  -3239961.865 3  -2524645.797 2  20971426.199    20971428.975    20971426.199
      -101.948         -79.437
   2330840.158 3   1816239.024 2  20776166.518    20776169.237    20776166.518
     -1459.214       -1137.068
  -4101492.340 3  -3195964.554 2  23824998.371    23824999.173    23824998.371
      1503.725        1171.712
  -6753575.548 3  -5262524.889 2  22914633.712    22914637.490    22914633.712
      2549.186        1986.369
   8467711.095 3   6598213.587 2  22717146.656    22717150.061    22717146.656
     -3007.242       -2343.320
  18969156.622 3  14753781.551 2  19689084.984    19689087.104    19689084.984
     -1471.158       -1144.262
   4622709.968 3   3595439.647 2  20087209.343    20087215.130    20087209.343
     -2394.595       -1862.438
  -3298582.477 3                  23241513.881                    23241513.881
     -4199.557
 00  2 17  0 56 30.0000000  0 11G27G18G16G 4G 1G22G24G14R11R 1R10
  -1083521.632 2   -844301.474 1  25207997.332    25207999.278    25207997.332
      3612.310        2814.778
  -6484478.968 3  -5052839.274 2  20243103.644    20243106.220    20243103.644
      1105.381         861.306
   1380547.061 3   1075750.473 2  20426087.003    20426090.408    20426087.003
     -1196.734        -932.520
  -3236554.615 3  -2521990.807 2  20972074.867    20972077.443    20972074.867
      -125.683         -97.925
   2374809.421 3   1850500.780 2  20784533.570    20784536.317    20784533.570
     -1472.532       -1147.444
  -4146325.689 3  -3230899.556 2  23816464.992    23816467.110    23816464.992
      1484.734        1156.946
  -6829828.605 3  -5321942.841 2  22900122.865    22900125.097    22900122.865
      2533.752        1974.333
   8558063.359 3   6668617.935 2  22734340.096    22734344.847    22734340.096
     -3016.905       -2350.809
  19013672.953 3  14788405.357 2  19697403.639    19697405.931    19697403.639
     -1497.171       -1164.459
   4694832.585 3   3651535.000 2  20100696.418    20100701.975    20100696.418
     -2414.193       -1877.701
  -3172476.481 3                  23265040.152                    23265040.152
     -4207.986
 00  2 17  0 57  0.0000000  0 11G27G18G16G 4G 1G22G24G14R11R 1R10
  -1191939.727 2   -928783.038 1  25187366.560    25187370.223    25187366.560
      3614.334        2816.329
  -6517450.775 3  -5078531.547 2  20236829.378    20236831.897    20236829.378
      1091.394         850.442
   1416627.938 3   1103865.437 2  20432953.119    20432955.924    20432953.119
     -1209.867        -942.765
  -3232493.119 3  -2518826.027 2  20972847.806    20972850.210    20972847.806
      -146.333        -114.007
   2419109.535 3   1885020.346 2  20792963.234    20792966.153    20792963.234
     -1482.360       -1155.066
  -4190646.343 3  -3265435.120 2  23808030.958    23808031.874    23808030.958
      1468.603        1144.402
  -6905682.856 3  -5381050.053 2  22885688.441    22885692.276    22885688.441
      2521.975        1965.156
   8648636.068 3   6739194.041 2  22751575.469    22751579.791    22751575.469
     -3022.659       -2355.280
  19058905.864 3  14823586.524 2  19705856.718    19705859.009    19705856.718
     -1519.655       -1181.955
   4767480.482 3   3708038.881 2  20114282.260    20114288.219    20114282.260
     -2430.260       -1890.180
  -3046184.345 3                  23288599.881                    23288599.881
     -4212.869
 00  2 17  0 57 30.0000000  0 11G27G18G16G 4G 1G22G24G14R11R 1R10
  -1300386.266 3  -1013286.829 1  25166731.365    25166735.887    25166731.365
      3615.988        2817.632
  -6549968.986 3  -5103870.400 2  20230641.415    20230643.705    20230641.415
      1076.980         839.216
   1453137.532 3   1132314.471 2  20439900.471    20439903.647    20439900.471
     -1223.485        -953.339
  -3227777.542 3  -2515151.569 2  20973745.153    20973747.385    20973745.153
      -167.180        -130.253
   2463754.939 3   1919808.988 2  20801459.440    20801461.987    20801459.440
     -1493.410       -1163.698
  -4234443.798 3  -3299562.957 2  23799695.700    23799700.880    23799695.700
      1451.849        1131.268
  -6981154.183 3  -5439858.864 2  22871327.063    22871329.610    22871327.063
      2510.242        1956.019
   8739411.264 3   6809927.942 2  22768850.358    22768853.763    22768850.358
     -3028.446       -2359.838
  19104846.113 3  14859317.844 2  19714441.923    19714443.355    19714441.923
     -1542.336       -1199.600
   4840644.849 3   3764944.472 2  20127963.954    20127970.084    20127963.954
     -2446.683       -1902.963
  -2919715.569 3                  23312189.725                    23312189.725
     -4217.990
 00  2 17  0 58  0.0000000  0 11G27G18G16G 4G 1G22G24G14R11R 1R10
  -1408864.040 3  -1097814.931 1  25146085.433    25146091.100    25146085.433
      3614.177        2816.271
  -6582034.178 3  -5128856.305 2  20224539.387    20224541.934    20224539.387
      1059.179         825.319
   1490062.735 3   1161087.357 2  20446927.188    20446930.507    20446927.188
     -1239.823        -966.074
  -3222439.788 3  -2510992.308 2  20974761.223    20974763.284    20974761.223
      -190.203        -148.199
   2508743.140 3   1954864.718 2  20810020.363    20810023.254    20810020.363
     -1507.585       -1174.733
  -4277728.884 3  -3333291.557 2  23791459.509    23791463.487    23791459.509
      1432.212        1115.996
  -7056264.326 3  -5498386.244 2  22857033.783    22857037.561    22857033.783
      2495.248        1944.345
   8830373.141 3   6880807.300 2  22786159.153    22786163.732    22786159.153
     -3037.264       -2366.683
  19151475.361 3  14895585.038 2  19723155.580    19723157.814    19723155.580
     -1567.913       -1219.473
   4914308.961 3   3822238.750 2  20141739.537    20141745.839    20141739.537
     -2465.915       -1917.934
  -3502191.338 3                  23335813.422                    23335813.422
     -4225.499
 00  2 17  0 58 30.0000000  0 11G27G18G16G 4G 1G22G24G14R11R 1R10
  -1517310.892 3  -1182318.929 1  25125451.537    25125456.803    25125451.537
      3615.110        2816.952
  -6613608.065 3  -5153459.361 2  20218531.154    20218533.930    20218531.154
      1045.181         814.430
   1527449.245 3   1190219.703 2  20454041.551    20454044.727    20454041.551
     -1252.901        -976.278
  -3216457.436 3  -2506330.745 2  20975899.412    20975901.644    20975899.412
      -208.893        -162.785
   2554136.878 3   1990236.456 2  20818658.519    20818661.095    20818658.519
     -1519.083       -1183.699
  -4320458.872 3  -3366587.610 2  23783325.578    23783333.534    23783325.578
      1415.990        1103.315
  -7130953.302 3  -5556585.439 2  22842820.953    22842823.987    22842820.953
      2483.365        1935.098
   8921561.860 3   6951863.425 2  22803512.458    22803516.436    22803512.458
     -3042.538       -2370.803
  19198838.400 3  14932422.963 2  19732006.702    19732008.765    19732006.702
     -1590.261       -1236.878
   4988520.251 3   3879958.604 2  20155617.723    20155623.337    20155617.723
     -2482.001       -1930.437
                                  23359473.554

 00  2 17  0 59  0.0000000  0 11G27G18G16G 4G 1G22G24G14R11R 1R10
  -1625765.897 3  -1266829.280 1  25104813.839    25104816.357    25104813.839
      3615.587        2817.351
  -6644744.688 3  -5177721.654 2  20212606.042    20212608.589    20212606.042
      1030.965         803.364
   1565232.152 3   1219660.930 2  20461231.401    20461234.320    20461231.401
     -1265.438        -986.052
  -3209906.820 3  -2501226.397 2  20977146.146    20977148.149    20977146.146
      -227.420        -177.178
   2599888.484 3   2025887.050 2  20827364.585    20827367.390    20827364.585
     -1530.700       -1192.744
  -4362678.783 3  -3399486.230 2  23775295.108    23775297.054    23775295.108
      1399.084        1090.201
  -7205264.552 3  -5614490.298 2  22828680.613    22828683.389    22828680.613
      2471.159        1925.590
   9012917.155 3   7023049.365 2  22820896.344    22820900.437    22820896.344
     -3047.425       -2374.598
  19246888.356 3  14969795.152 2  19740986.330    19740988.049    19740986.330
     -1612.650       -1254.278
   5063230.707 3   3938066.704 2  20169588.482    20169595.243    20169588.482
     -2498.211       -1943.065
                                  23383160.854

